GFSFLT1_850_thetae_000.txt.gz
Theta_e
327 327 321 319 317 314 312 314 313 313 317 317 322 316 311 312 314 316 320 320 318 316 309 309 309 309 308 308 307 306 305 304 305
328 323 322 317 316 315 314 312 310 309 310 310 312 314 311 311 312 313 316 318 314 313 309 309 309 309 308 308 308 307 306 305 304
329 324 321 315 316 315 317 317 315 312 308 308 308 310 309 310 312 314 314 318 316 321 313 309 309 309 309 309 308 308 307 307 306
323 325 320 315 316 324 327 326 321 318 314 309 306 308 309 309 311 313 313 315 317 313 321 310 309 309 309 309 309 309 308 308 308
313 315 314 313 316 321 322 315 317 316 315 314 310 307 308 309 309 311 313 314 315 314 318 313 309 309 309 309 309 309 309 309 309
312 312 311 312 314 315 315 322 314 315 314 313 313 309 307 307 309 309 311 313 314 314 314 323 318 309 309 309 309 309 309 309 309
312 313 313 313 314 317 317 317 316 315 315 312 311 311 308 307 307 308 309 310 314 315 314 316 323 317 309 309 309 309 309 309 309
313 314 316 315 317 318 319 319 318 317 316 315 313 312 310 307 306 308 309 309 309 311 312 314 323 323 320 313 311 310 309 309 309
315 316 318 318 319 319 320 320 320 320 319 318 318 316 313 311 307 306 308 309 309 308 308 311 321 324 324 323 318 313 310 309 309
319 319 320 321 321 322 322 322 322 322 322 322 321 320 319 317 315 312 308 308 309 310 309 308 313 322 323 325 323 321 314 311 311
321 322 323 323 324 324 324 324 323 323 323 323 323 323 323 322 322 320 318 315 310 310 311 312 310 313 322 325 325 324 322 320 317
326 327 328 328 329 330 329 328 328 327 327 327 326 325 324 324 324 323 323 323 321 317 313 313 313 313 314 320 321 323 324 324 323
329 330 330 331 331 331 331 331 330 330 330 330 329 329 328 327 326 325 325 325 324 324 323 320 318 316 315 318 320 319 320 320 321
331 332 331 332 332 331 331 331 331 330 329 330 330 329 328 328 327 327 327 326 326 326 325 325 324 323 322 320 319 319 318 318 319
332 332 332 331 331 330 330 330 330 329 329 329 328 328 326 326 325 325 325 325 325 325 325 325 325 325 325 325 324 323 321 320 319
330 329 328 327 327 327 327 327 327 327 328 328 327 327 326 326 325 324 325 324 324 324 324 324 325 325 322 323 321 320 321 322 322
323 323 323 322 323 324 324 325 326 327 327 327 327 325 326 326 326 326 326 326 325 325 325 325 325 325 325 325 325 325 323 321 320
316 315 314 314 313 314 315 316 316 319 322 325 325 324 325 326 325 325 325 325 326 325 325 325 325 325 325 325 325 325 325 326 326
313 313 312 311 310 309 308 308 308 310 311 313 318 321 322 324 324 324 324 324 325 324 324 324 324 325 324 325 325 325 326 325 326
309 309 308 308 308 307 306 306 305 304 304 305 306 309 311 314 317 318 319 317 318 318 320 319 319 320 324 325 323 323 325 324 325

GFSFLT1_850_thetae_003.txt.gz
Theta_e
327 327 319 318 318 317 314 313 316 317 317 322 323 327 325 315 313 314 316 318 319 316 324 318 319 313 310 309 309 308 307 306 305
329 327 322 321 316 316 316 315 314 311 311 313 322 324 326 318 312 313 312 313 318 318 323 316 308 308 308 308 308 308 307 307 305
330 329 326 322 317 317 324 326 322 320 316 310 308 317 323 318 311 311 313 314 316 318 322 322 310 308 308 309 309 309 308 308 307
331 329 329 325 321 321 326 325 326 326 324 317 314 311 309 314 312 310 313 314 316 319 318 323 323 319 310 309 309 309 309 308 308
324 328 326 325 324 320 325 326 326 324 323 315 314 314 312 310 308 309 309 313 315 317 318 322 323 322 315 309 309 309 309 309 309
315 315 315 314 314 314 315 322 324 323 320 315 315 314 312 311 309 307 308 309 311 314 315 318 323 324 323 317 311 309 309 309 309
313 313 314 315 316 316 317 318 318 318 318 317 316 315 313 311 310 307 307 307 308 309 310 313 318 322 323 323 316 312 310 309 309
314 315 316 317 318 319 319 319 320 320 320 321 320 320 319 317 315 312 308 306 307 309 309 309 312 316 322 323 323 321 318 314 310
319 320 321 321 322 322 323 323 323 323 322 322 322 322 322 322 322 321 319 314 308 307 309 309 308 308 315 323 323 324 320 315 313
322 323 324 325 327 327 328 328 327 326 325 325 324 324 324 323 323 323 323 322 320 316 310 308 309 309 309 314 320 323 324 324 319
328 328 329 330 331 331 331 331 330 330 329 329 329 329 329 328 327 325 324 323 323 322 321 317 312 310 311 314 316 318 320 324 325
331 331 331 332 332 332 332 331 331 330 330 330 330 329 329 329 329 328 327 325 324 324 324 323 322 319 315 316 317 316 316 321 323
331 331 331 331 331 331 330 330 329 329 329 329 328 328 328 328 328 327 327 327 327 326 326 326 325 324 323 321 322 319 317 316 317
330 330 330 330 330 328 328 328 328 327 328 328 328 328 327 327 327 327 326 325 325 324 325 324 324 325 326 326 325 323 322 320 319
328 328 327 325 324 324 324 324 324 325 326 326 327 327 327 326 325 324 325 325 326 325 325 325 324 324 324 324 325 325 325 325 324
320 320 320 319 319 317 316 315 316 316 317 320 322 322 322 324 324 326 326 326 325 326 327 326 326 325 324 324 325 324 324 324 322
313 312 311 311 310 310 309 309 308 308 308 315 316 321 320 323 324 323 323 324 327 327 326 326 326 325 326 325 325 325 325 325 325
310 309 308 308 308 307 307 307 306 305 306 306 308 316 316 313 313 317 318 323 324 321 323 324 325 322 324 324 322 323 323 325 326
308 308 308 307 306 305 304 303 303 303 303 303 306 305 307 311 312 311 312 313 318 319 318 316 314 314 314 315 315 316 317 321 322
309 308 307 304 302 300 299 298 298 298 299 301 303 305 307 308 310 311 310 310 311 311 311 311 315 316 316 312 314 316 318 318 321

GFSFLT1_850_thetae_006.txt.gz
Theta_e
330 327 324 321 318 317 316 313 313 316 317 316 323 325 324 325 324 321 322 321 326 320 316 324 315 324 325 319 314 309 308 307 306
331 329 327 326 323 317 318 321 320 317 314 311 311 320 324 322 325 322 320 323 323 318 323 323 323 318 322 321 315 312 308 307 306
331 330 328 328 325 321 323 325 325 326 325 322 317 313 319 325 322 324 321 318 313 315 324 323 324 323 318 315 313 311 309 308 308
328 329 328 327 326 325 319 325 325 326 325 325 323 318 316 318 323 323 323 320 312 315 326 325 323 326 323 322 322 316 314 309 309
322 323 323 320 322 318 314 315 316 318 322 317 315 314 313 316 322 322 322 314 309 312 314 319 324 323 326 323 322 317 311 313 309
317 318 315 315 316 316 317 317 318 319 319 319 318 317 318 321 319 318 313 307 307 308 309 312 318 323 323 326 324 321 317 312 311
315 315 315 316 317 319 320 320 320 320 325 326 325 324 324 323 322 320 317 313 308 307 307 309 309 311 319 322 324 325 322 322 315
320 320 321 322 323 324 325 325 326 326 326 326 326 326 325 325 324 323 322 321 319 314 307 307 308 309 309 312 318 323 324 323 319
323 324 326 326 328 329 329 329 329 328 328 328 327 327 327 326 325 324 323 323 323 322 320 315 308 308 309 309 310 314 323 324 322
328 329 330 330 330 330 330 330 330 330 329 329 329 328 328 328 328 327 326 325 324 323 323 322 321 316 310 309 309 309 310 322 324
330 330 331 331 330 331 331 331 330 330 329 329 329 329 329 329 328 328 328 328 327 326 325 324 323 323 322 318 313 311 311 312 320
330 330 330 331 330 330 329 329 328 329 329 329 329 329 328 328 328 328 328 327 327 326 325 326 326 326 325 324 323 320 315 312 312
330 330 330 330 330 328 327 326 326 326 326 326 326 326 326 326 327 327 326 327 326 326 326 325 325 325 325 326 326 325 324 322 318
329 328 326 323 321 322 320 322 322 320 322 322 322 322 322 324 326 326 326 325 325 325 326 326 326 325 325 324 325 326 327 327 325
319 317 316 314 312 311 311 313 314 315 317 317 317 319 319 321 323 324 325 326 326 325 325 325 326 326 326 326 325 324 325 325 326
312 311 310 309 308 308 307 308 309 310 311 311 312 312 315 318 317 323 321 317 321 323 324 325 326 325 325 325 325 326 326 325 325
309 308 309 309 308 307 306 305 305 307 307 309 308 310 311 312 312 310 312 314 314 320 323 323 323 323 323 323 321 321 323 324 324
309 309 308 307 305 303 300 299 299 303 304 305 306 308 309 308 308 309 310 312 312 312 314 316 316 315 318 319 317 316 314 314 315
309 307 305 302 299 297 296 295 295 299 301 302 303 304 304 306 307 306 307 307 309 308 309 309 309 310 311 315 317 315 313 312 317
305 302 299 297 296 295 294 294 294 295 298 299 300 302 303 303 303 303 302 302 302 302 302 305 308 309 309 313 315 315 316 317 317

GFSFLT1_850_thetae_009.txt.gz
Theta_e
330 330 327 326 326 318 316 315 314 313 312 314 314 318 325 323 325 326 323 322 323 327 323 315 322 318 323 326 324 319 312 309 308
332 330 329 327 325 322 318 323 324 325 324 322 317 311 312 316 322 323 326 322 323 325 319 322 322 325 319 319 325 322 323 314 308
335 331 330 327 326 324 322 320 323 325 325 325 321 316 313 312 316 315 324 324 318 313 312 315 325 324 325 319 314 313 311 312 309
331 328 328 325 324 323 316 314 315 316 320 318 314 313 313 312 312 320 323 324 321 311 310 312 324 324 326 327 322 316 313 310 311
321 322 321 317 315 315 316 317 318 318 319 319 319 318 317 317 320 322 321 320 312 309 308 309 311 319 325 324 326 324 316 313 311
327 325 315 315 316 318 319 320 320 320 320 322 325 325 323 323 324 322 321 319 315 311 307 307 308 309 313 322 322 325 324 319 317
319 317 318 320 321 322 323 324 324 324 325 327 327 327 327 327 326 325 324 322 322 321 318 313 307 307 309 310 313 317 325 326 322
328 329 328 327 327 327 330 330 330 329 329 329 329 328 328 328 327 327 326 324 323 323 322 322 319 314 308 308 309 309 311 318 325
330 330 331 331 331 331 331 331 331 331 331 330 330 330 329 329 329 328 328 327 327 326 326 325 323 322 320 315 308 309 309 309 311
332 332 332 332 332 332 332 332 332 332 332 331 331 331 331 330 330 330 329 329 329 328 328 328 328 326 324 323 321 317 310 309 309
332 333 334 333 333 332 331 331 330 330 330 330 330 330 329 329 329 329 329 329 329 328 327 326 326 326 327 327 326 324 323 320 312
332 333 333 331 330 330 330 329 328 327 327 326 326 326 326 326 326 327 327 327 328 327 327 327 326 326 325 327 330 329 328 326 323
331 332 329 326 326 325 323 322 321 320 320 321 321 321 321 321 322 323 325 326 326 325 325 326 326 325 325 325 326 327 327 327 327
324 319 315 316 314 313 310 312 313 312 312 314 314 313 315 317 316 319 323 324 325 326 325 324 323 322 323 325 326 326 325 326 326
312 310 309 309 310 310 310 310 310 310 311 311 310 311 310 312 316 317 317 321 322 322 314 319 324 324 325 324 325 325 325 325 326
309 310 310 310 309 308 307 306 305 305 306 305 306 304 310 309 312 313 312 310 310 311 313 316 320 318 319 320 320 320 320 321 324
310 310 309 307 305 304 301 300 299 301 301 303 303 305 305 306 302 304 307 307 310 312 311 310 313 313 314 315 314 315 318 318 318
309 307 304 303 301 299 297 297 297 299 300 300 301 302 303 303 303 302 305 306 303 305 306 304 304 305 305 305 308 311 313 315 316
307 304 303 300 297 296 295 295 295 296 299 298 298 299 300 302 302 301 300 300 300 298 300 300 300 301 306 307 308 310 312 313 313
306 302 300 297 295 295 294 295 294 294 297 296 296 297 299 299 298 298 297 297 297 298 298 300 299 301 305 306 306 307 304 306 307

GFSFLT1_850_thetae_012.txt.gz
Theta_e
330 329 328 326 322 318 314 313 314 316 314 314 312 311 311 310 313 314 324 324 317 324 327 325 318 314 318 322 326 325 320 311 309
333 330 328 328 319 320 315 313 313 317 319 317 318 312 311 311 310 310 313 320 322 320 325 316 315 317 316 313 312 322 324 317 314
332 333 329 329 317 316 314 314 315 315 316 316 316 313 312 312 311 310 312 318 321 319 312 310 310 312 313 318 317 310 312 314 315
332 330 326 316 314 315 316 317 317 317 318 317 318 317 317 317 316 313 312 313 320 319 311 309 309 310 312 313 322 324 314 311 311
318 318 316 315 315 316 318 319 319 319 319 320 320 323 324 322 321 320 320 319 318 318 313 309 307 308 309 311 318 319 327 322 314
326 325 317 316 317 319 320 321 322 323 323 324 326 327 326 325 325 324 324 323 322 322 320 319 316 309 307 309 310 318 317 324 325
328 319 321 322 323 324 325 325 326 328 326 326 326 327 327 327 327 327 327 326 325 325 324 323 322 322 320 313 308 311 317 317 324
328 328 329 328 327 328 328 329 329 329 330 330 330 330 330 329 329 329 328 329 328 328 328 328 327 326 325 323 321 317 309 313 316
331 331 330 331 331 331 330 332 331 332 331 331 331 330 330 330 330 330 329 330 330 329 329 329 328 327 328 329 327 324 323 319 311
332 332 331 332 332 332 331 330 329 329 328 328 329 328 328 328 328 328 328 329 329 329 328 328 328 327 329 330 330 330 328 327 325
332 332 332 331 330 330 329 328 327 326 326 325 325 325 326 325 325 324 322 322 326 326 325 326 326 327 327 327 327 327 329 330 328
332 331 330 329 327 326 324 322 320 319 317 316 318 319 318 317 318 317 317 320 322 325 325 325 325 324 320 321 321 323 327 327 328
331 330 324 319 317 316 311 311 311 311 310 311 311 311 311 309 309 312 314 317 321 322 323 321 318 320 320 323 324 324 323 325 326
320 312 310 310 310 311 310 310 309 308 306 307 306 305 305 307 311 311 314 317 316 318 320 317 316 314 318 322 323 324 323 322 322
310 310 311 310 310 309 308 306 305 303 302 301 301 301 305 308 306 308 310 310 308 308 310 309 310 312 316 317 317 317 319 319 318
311 310 309 308 306 305 303 301 300 299 298 299 298 300 300 301 305 301 301 301 304 306 308 308 308 307 305 303 305 306 308 310 313
310 309 308 307 305 303 300 298 297 297 296 297 297 299 298 300 297 301 299 304 305 301 299 299 298 299 299 299 299 301 303 310 313
309 308 305 303 301 299 296 296 295 296 296 295 296 298 298 297 299 297 300 299 296 296 294 295 297 297 300 298 296 301 305 307 310
308 306 304 301 298 296 295 295 295 294 294 294 294 294 295 297 297 297 295 295 294 294 295 295 298 298 293 297 301 303 303 303 303
308 306 304 301 298 296 295 294 294 294 293 294 294 293 294 293 294 295 295 294 294 294 294 297 294 293 295 294 295 297 297 299 300

GFSFLT1_850_thetae_015.txt.gz
Theta_e
330 327 327 325 316 312 311 311 311 312 313 314 314 313 312 311 310 310 312 318 318 320 326 321 320 320 314 320 323 327 327 327 313
332 329 329 328 316 314 314 314 314 314 315 314 315 312 311 311 311 310 311 312 319 321 323 327 323 314 314 313 314 315 321 327 319
331 333 328 327 316 315 315 316 316 317 317 316 317 317 317 317 317 316 313 312 316 322 327 324 317 314 313 324 319 323 317 311 316
330 331 325 317 315 316 317 318 318 318 319 319 319 320 322 323 323 320 319 319 318 318 328 326 317 310 310 313 326 323 326 325 317
317 316 317 316 316 317 319 320 321 323 324 324 324 326 325 325 325 325 325 324 323 322 326 327 323 320 316 309 310 321 326 328 331
322 320 319 319 321 323 325 325 326 327 327 327 328 328 328 328 327 327 327 327 327 326 326 325 325 325 324 322 320 316 316 326 327
325 323 325 326 327 326 327 328 329 330 331 330 331 331 330 330 330 330 329 329 329 329 329 329 328 328 328 327 327 325 324 324 324
327 328 329 329 329 330 331 330 330 330 329 328 330 330 329 330 330 328 329 329 328 329 329 329 329 328 328 328 328 329 329 328 327
331 331 331 331 332 331 329 329 328 328 328 328 327 326 326 327 327 326 326 327 325 326 327 328 327 327 328 327 327 326 328 329 329
332 331 331 331 330 330 329 329 327 327 325 324 324 322 322 324 324 325 324 321 319 321 324 325 325 326 325 326 326 322 324 327 328
331 331 331 329 329 329 328 327 325 318 317 315 313 313 314 315 315 313 315 316 315 319 321 324 327 327 326 326 325 324 321 321 322
331 330 329 328 327 324 318 312 311 311 311 310 310 310 310 309 308 308 309 312 314 318 318 321 320 319 318 316 318 321 323 325 325
327 327 326 317 312 310 311 311 310 309 307 306 306 305 304 304 306 310 311 313 314 315 313 313 313 314 316 313 315 317 319 320 321
326 312 310 310 311 310 309 307 305 304 303 303 303 303 303 307 306 307 307 307 307 307 306 306 306 307 308 309 311 312 312 309 311
310 311 310 309 308 307 306 305 303 301 300 301 301 302 302 300 301 303 301 300 300 302 304 302 300 300 300 301 303 302 301 302 306
310 310 309 308 306 304 303 301 301 300 299 299 300 300 300 300 299 297 297 297 300 301 302 298 295 294 295 296 296 296 296 297 303
309 309 308 307 304 302 300 298 298 297 295 295 296 296 297 298 295 298 295 298 299 296 294 293 293 293 295 297 296 293 294 304 305
310 309 308 306 303 300 298 296 296 296 296 295 295 295 295 293 296 294 296 294 294 293 292 292 292 295 296 294 291 291 293 300 301
310 309 308 305 301 298 297 295 295 294 294 294 293 293 293 293 294 293 292 293 292 291 291 291 293 293 292 292 292 293 295 296 298
309 308 306 303 300 298 296 295 294 293 293 293 293 292 292 291 292 292 291 291 291 291 291 291 291 292 290 291 290 291 293 295 295

GFSFLT1_850_thetae_018.txt.gz
Theta_e
330 327 326 326 317 314 313 313 313 314 316 316 316 316 314 313 312 311 311 312 317 320 326 325 325 323 322 318 322 326 327 327 327
331 329 329 324 315 315 315 315 316 316 316 316 318 317 317 317 317 317 316 312 314 318 323 326 327 326 326 324 322 325 325 325 330
331 331 329 322 315 316 316 317 318 318 318 318 319 319 321 323 324 323 319 318 315 317 322 327 326 325 324 324 326 328 328 328 325
329 330 322 317 316 316 318 319 321 322 324 324 324 324 325 325 325 325 325 324 324 323 322 326 327 326 323 320 319 321 328 327 328
320 317 317 317 318 321 324 324 326 326 327 328 329 329 329 329 328 328 328 329 328 328 327 327 327 326 326 327 326 324 319 321 327
320 320 320 323 325 325 326 327 328 329 330 330 330 330 329 329 329 329 329 329 329 328 328 329 328 328 328 327 327 327 327 325 324
324 324 327 328 327 329 330 330 330 329 328 328 328 328 328 328 328 328 327 327 328 328 329 328 328 329 329 328 327 326 327 328 329
327 328 329 330 331 331 331 329 329 328 327 327 327 327 326 326 327 327 325 325 326 326 326 326 327 327 327 327 327 328 328 328 328
330 331 331 330 330 331 329 328 328 327 327 326 326 325 324 323 324 324 324 324 325 324 324 324 324 324 326 327 327 327 327 327 322
331 332 331 330 329 328 328 327 327 327 324 320 319 319 316 316 316 316 316 313 314 314 316 320 322 324 326 327 327 326 326 324 323
332 331 329 329 328 326 326 327 322 314 312 312 311 311 311 311 312 311 310 309 310 311 315 317 320 321 322 322 320 318 319 321 320
329 329 328 327 326 326 318 312 311 311 311 309 308 307 306 305 305 305 306 310 312 313 313 314 312 311 313 313 313 314 314 315 316
328 327 326 324 311 310 311 311 309 308 307 306 305 304 303 303 307 308 308 307 305 305 306 307 306 307 306 306 307 307 308 309 310
328 323 310 310 310 309 308 307 305 304 303 303 303 302 302 304 301 301 302 301 299 299 301 303 304 302 300 297 297 298 300 302 302
310 310 310 309 308 306 305 303 301 300 300 301 301 301 301 300 299 299 298 297 297 300 300 299 297 296 296 296 296 295 296 296 299
310 309 308 308 307 305 303 301 300 300 299 299 301 300 298 298 300 297 297 296 296 295 295 295 294 294 294 294 294 294 293 298 297
309 309 310 309 307 303 301 299 298 297 296 296 297 296 297 297 295 295 294 295 294 294 294 293 293 293 292 292 292 292 292 294 298
310 310 309 307 304 301 299 297 296 296 295 294 294 293 293 292 294 293 293 292 292 292 292 292 291 291 290 291 291 290 291 293 295
310 309 308 305 302 299 297 295 294 294 294 293 293 292 291 291 291 292 292 291 291 291 290 290 290 290 290 290 290 290 291 292 295
309 308 307 303 300 297 295 294 293 293 292 292 292 292 291 290 290 290 290 289 290 290 290 290 289 289 289 290 289 289 291 293 294

GFSFLT1_850_thetae_021.txt.gz
Theta_e
329 327 327 324 315 314 314 314 313 314 315 315 315 315 314 315 316 316 314 311 311 318 320 325 325 325 325 325 324 325 325 326 327
331 329 328 324 315 315 316 317 317 317 317 318 318 319 319 322 324 323 321 318 313 313 318 324 326 326 327 327 327 323 325 325 324
331 330 330 320 316 316 317 318 319 321 323 322 323 323 325 325 325 325 325 325 323 322 321 321 327 327 325 321 320 319 324 327 326
329 329 322 317 316 318 322 322 324 325 326 326 327 328 328 329 328 328 328 328 328 328 328 326 325 327 326 326 326 326 324 319 326
324 317 317 319 323 324 325 326 327 327 329 329 330 330 329 329 328 329 329 329 329 329 328 328 328 328 328 327 327 327 327 328 324
320 319 321 325 327 327 329 329 329 329 328 328 327 328 327 328 327 327 328 327 327 327 328 329 330 329 329 328 328 327 327 326 328
323 324 325 328 329 330 330 329 328 328 328 327 326 327 327 327 326 327 327 325 325 326 327 328 329 328 328 328 327 327 327 328 328
326 327 328 329 330 331 331 328 327 327 327 327 326 326 325 325 324 324 325 325 324 324 324 324 324 323 323 324 324 326 328 328 328
329 329 330 330 329 328 328 327 327 325 326 326 325 323 323 321 318 319 319 319 317 317 318 318 317 320 323 326 327 326 326 326 327
330 330 330 329 328 327 326 326 325 326 325 321 316 315 314 312 312 313 313 312 311 310 311 312 316 319 321 323 323 324 323 323 323
330 329 328 327 326 325 325 326 323 313 311 311 311 310 309 308 307 307 306 306 306 308 310 312 313 314 316 317 316 317 316 317 316
328 327 327 326 325 325 321 314 310 310 310 309 307 306 305 304 304 304 306 308 309 309 309 308 309 309 310 309 309 310 312 311 310
327 327 326 326 320 310 310 310 309 308 306 305 304 303 303 303 304 305 304 303 303 303 300 300 302 303 304 304 304 303 301 302 303
326 326 317 310 310 309 307 306 304 303 303 303 303 302 302 302 303 300 300 298 297 297 297 301 301 299 298 296 296 296 296 297 297
323 311 310 309 308 308 306 304 302 301 301 301 301 301 301 301 300 299 298 297 296 297 297 295 295 295 295 295 295 295 295 295 295
310 310 309 310 309 307 304 302 300 299 299 300 301 300 299 299 298 299 296 296 296 296 295 294 294 294 294 294 294 294 293 294 296
310 310 310 310 308 304 301 300 298 297 296 295 296 295 296 297 296 296 295 294 294 294 293 293 293 293 293 293 293 292 292 293 296
310 310 310 309 305 302 300 298 296 295 294 293 293 293 293 292 293 293 293 293 293 293 292 292 292 292 291 291 291 291 291 292 295
310 310 309 307 304 301 299 297 295 294 293 293 292 292 291 290 291 292 292 292 291 291 291 291 290 290 290 289 289 289 290 292 294
309 308 307 305 303 300 298 296 294 293 292 292 292 291 291 290 289 289 290 290 290 290 290 289 289 289 289 288 288 289 290 291 293

GFSFLT1_850_thetae_024.txt.gz
Theta_e
329 326 327 316 314 314 315 315 315 315 315 316 315 316 317 320 322 322 320 317 312 311 315 318 326 326 325 325 322 317 326 328 327
329 329 328 320 316 316 317 318 318 319 319 319 320 320 322 324 324 324 323 322 321 318 315 316 324 325 325 325 326 327 323 320 322
331 329 328 319 317 317 319 321 322 325 325 325 325 326 326 327 327 327 327 327 327 327 326 325 322 326 327 325 323 322 320 321 325
329 328 325 317 318 322 324 326 326 327 328 329 328 329 329 329 328 329 329 329 328 328 328 327 327 326 326 326 326 326 326 326 323
327 321 318 322 324 326 327 327 328 328 328 328 328 327 327 328 327 327 328 328 327 327 328 329 328 328 328 328 328 327 327 327 326
319 320 323 326 327 327 329 329 329 328 328 327 326 326 326 326 325 325 326 327 326 325 327 328 329 330 330 330 329 329 328 327 327
323 324 326 327 328 330 330 329 327 327 326 326 326 326 326 326 325 325 325 326 325 324 324 324 323 324 324 324 325 326 327 327 327
325 326 328 329 329 329 328 327 326 325 325 325 326 325 324 323 322 319 318 319 321 321 321 321 321 319 320 321 324 325 327 328 328
328 329 329 329 328 327 327 326 325 324 325 325 325 321 317 316 315 313 312 313 314 313 313 312 314 315 317 319 321 324 324 325 325
329 329 328 327 326 326 325 324 324 325 321 314 311 311 310 310 309 308 308 307 307 307 308 309 310 311 314 318 320 321 322 322 321
328 328 327 325 325 324 324 324 319 311 310 310 309 308 306 305 304 304 304 304 305 306 307 308 309 310 311 311 312 313 314 315 316
329 326 326 326 325 325 316 310 310 309 308 307 306 304 303 303 303 303 304 306 305 305 304 303 302 302 304 305 307 307 308 308 309
328 326 325 326 321 310 309 309 308 306 305 304 303 303 302 302 302 303 302 300 299 298 298 298 298 300 301 300 300 300 299 299 299
326 325 323 311 309 308 308 308 306 305 303 303 302 302 302 301 301 302 301 299 298 297 296 297 297 296 296 296 296 296 296 296 296
327 323 310 309 309 309 307 304 303 302 302 302 302 302 301 300 300 300 298 298 297 296 296 296 295 295 295 295 295 295 295 295 295
315 310 309 310 310 308 305 303 302 301 301 301 301 300 299 299 299 298 297 298 296 295 295 294 294 294 294 294 293 293 293 293 294
310 309 310 310 310 308 306 303 301 299 298 297 296 295 296 297 297 295 296 295 294 294 293 293 293 293 293 292 292 292 292 292 294
310 310 310 310 309 308 305 302 300 298 296 294 293 293 292 292 293 294 294 293 292 292 292 292 292 292 292 291 291 291 290 290 294
310 310 310 309 308 307 303 300 298 296 294 293 292 291 291 290 290 291 292 291 291 291 291 291 291 291 290 290 289 289 289 291 294
310 310 309 308 307 305 301 298 296 294 292 292 292 291 291 290 289 288 289 291 291 290 289 289 290 290 289 288 288 287 290 291 292

GFSFLT1_850_thetae_027.txt.gz
Theta_e
327 326 324 315 315 316 316 315 316 316 316 317 316 318 319 322 323 322 319 319 315 313 312 317 320 327 326 324 324 318 323 331 332
327 329 326 318 317 317 318 318 319 320 321 321 321 322 323 325 325 325 324 324 324 323 318 317 319 323 322 325 326 324 318 316 319
330 328 327 318 318 319 321 323 325 325 326 327 327 327 327 328 327 327 327 326 327 326 326 326 324 323 325 326 325 323 323 322 320
330 327 325 318 320 324 325 326 326 327 327 327 328 328 328 327 328 327 328 328 328 327 327 328 328 327 326 326 326 326 326 326 326
329 325 318 323 325 326 326 327 328 328 328 328 327 326 326 325 326 325 326 326 327 327 326 328 328 330 330 330 329 329 328 327 327
323 318 322 326 326 327 329 328 328 326 326 326 326 326 326 326 326 326 325 325 326 325 325 324 325 325 325 327 327 329 330 329 329
321 323 326 327 328 329 330 329 327 326 325 325 325 325 325 324 324 323 320 319 321 322 323 323 323 322 322 321 321 322 325 326 328
324 325 326 328 329 328 327 326 325 324 324 324 325 324 323 319 317 317 315 314 314 315 315 315 315 315 316 317 318 320 323 324 326
327 328 328 329 327 326 326 325 324 324 324 323 317 313 311 311 310 310 310 309 309 309 310 311 311 311 312 315 317 318 319 320 320
328 328 327 326 325 325 324 324 324 323 315 310 310 310 309 308 307 306 305 304 304 305 305 306 307 308 310 311 313 315 317 319 320
328 327 326 325 324 324 324 324 314 310 309 308 307 306 305 304 303 303 303 304 305 306 306 306 306 306 306 307 309 310 311 312 312
328 327 326 325 325 325 320 310 309 307 306 305 304 303 303 303 302 302 302 302 301 299 298 298 298 299 299 300 300 301 301 302 303
329 327 325 324 325 312 310 308 308 307 305 304 303 303 302 302 301 301 301 300 299 298 297 297 296 297 296 296 296 296 296 296 296
328 326 325 323 310 310 309 308 305 304 303 302 302 302 302 302 300 300 300 300 298 297 296 296 296 296 295 295 295 295 295 295 295
327 326 323 310 309 309 308 306 304 303 302 302 302 302 301 300 299 299 298 297 297 297 296 295 296 295 295 295 295 294 294 294 294
326 324 310 310 310 309 309 306 304 302 302 301 301 299 299 298 298 299 297 296 296 295 295 295 294 294 294 294 294 294 294 294 293
317 310 310 310 310 310 309 307 304 302 301 298 297 296 297 297 297 296 296 295 295 294 293 294 294 294 294 294 294 293 293 293 293
310 310 310 310 310 309 308 307 304 301 299 296 295 294 293 293 295 295 295 294 294 293 293 294 293 293 293 292 292 292 291 291 291
309 310 310 310 309 308 307 306 302 299 297 295 294 293 292 291 291 291 292 291 292 292 292 292 292 291 291 290 290 289 289 289 294
309 310 310 309 308 307 306 303 299 297 295 294 293 293 292 291 289 289 291 291 291 291 291 291 291 290 290 289 288 287 289 291 292

GFSFLT1_850_thetae_030.txt.gz
Theta_e
326 325 319 316 316 316 314 314 314 315 316 317 316 317 320 323 329 327 326 321 318 315 311 313 319 324 329 328 324 323 317 329 332
327 328 322 317 317 318 318 319 320 321 322 322 322 323 324 325 329 328 325 325 324 323 322 319 320 318 319 322 325 327 323 317 322
329 327 325 318 318 320 322 324 325 325 326 326 327 328 328 330 331 330 329 327 327 327 326 326 326 325 322 325 325 326 324 323 322
329 327 326 318 320 324 325 325 326 327 327 328 328 327 326 327 330 327 329 327 328 328 328 328 329 331 330 327 326 327 327 326 326
330 327 324 321 324 325 326 327 328 328 327 327 327 326 326 328 326 326 326 325 326 326 326 324 325 327 327 329 330 331 330 329 329
328 325 319 325 326 327 328 328 327 326 326 325 325 324 325 325 325 324 324 322 322 323 325 325 324 323 324 323 322 323 325 328 330
322 318 323 326 327 329 329 329 326 326 325 324 324 324 324 323 321 319 319 318 316 317 316 318 319 320 320 320 320 320 321 322 324
322 324 326 327 328 328 327 326 325 324 324 324 323 320 317 314 312 311 311 311 311 311 313 313 312 313 313 313 314 314 315 317 318
327 328 329 328 327 326 326 325 324 324 323 320 312 310 310 310 309 308 308 307 306 307 309 308 308 308 308 310 310 311 313 314 316
329 329 327 326 326 325 324 324 324 322 313 310 310 309 308 307 306 305 304 304 304 304 304 305 306 306 307 309 310 310 311 312 313
327 327 326 326 325 324 324 324 317 310 309 308 307 305 304 303 303 302 303 303 303 304 304 303 302 301 301 302 301 301 302 303 303
327 327 326 325 325 325 325 311 309 308 307 306 305 304 303 302 302 302 302 301 301 300 298 298 297 297 297 297 297 297 297 297 298
328 328 326 325 324 324 310 309 308 306 304 303 302 302 302 301 301 301 301 300 299 299 298 297 297 296 296 296 296 296 296 296 296
330 328 326 325 323 310 309 309 307 306 304 303 302 302 302 301 300 300 300 300 299 297 297 298 297 296 296 296 296 296 295 295 295
330 327 326 322 310 309 310 309 309 307 305 303 301 301 300 299 298 299 299 298 297 296 296 296 295 295 295 295 295 295 295 295 295
329 324 325 310 310 311 311 310 309 307 305 303 300 299 299 297 297 299 298 297 296 295 295 295 294 295 295 295 295 295 295 294 294
327 320 313 310 310 311 311 310 309 307 304 300 299 300 299 297 297 297 296 295 295 295 294 295 295 294 294 294 294 294 294 293 293
321 310 310 310 311 311 310 309 308 304 302 299 297 298 299 296 296 296 295 294 294 293 294 294 294 294 293 292 292 292 291 291 291
309 309 310 310 311 310 310 308 306 303 299 297 296 295 294 295 295 295 294 293 292 292 292 293 293 292 291 291 291 291 290 289 290
308 309 310 310 310 310 309 307 304 302 298 296 294 293 293 292 292 293 294 293 292 292 291 290 290 290 289 289 289 288 288 290 292

GFSFLT1_850_thetae_033.txt.gz
Theta_e
324 318 315 316 315 313 312 313 313 313 315 316 316 318 321 326 331 330 330 329 324 323 317 312 314 317 327 329 328 324 325 317 328
328 323 317 317 317 318 318 318 320 321 322 323 324 325 325 326 331 331 331 330 326 326 325 324 324 323 320 318 321 324 326 324 316
328 326 320 317 318 320 322 324 325 325 326 327 327 327 327 328 330 331 330 329 327 327 328 327 329 331 330 325 324 326 327 325 323
328 328 325 318 321 323 325 325 326 327 328 328 327 327 325 326 330 329 329 325 326 327 328 326 324 328 328 330 332 330 328 327 327
329 329 326 319 323 324 325 327 328 327 327 326 326 325 326 328 328 327 325 325 325 325 325 325 325 324 323 322 324 325 328 330 331
330 328 324 323 325 326 327 328 328 326 325 324 323 323 323 323 323 323 321 321 319 317 316 318 319 321 322 322 321 320 319 320 322
331 326 319 325 326 327 329 328 326 325 323 322 321 320 320 319 318 316 314 314 314 313 314 313 313 314 315 316 315 315 315 315 315
322 319 323 327 327 330 327 326 325 325 324 323 319 315 311 312 311 312 311 310 309 310 311 310 310 311 312 312 311 311 312 313 314
327 329 329 330 328 327 326 324 324 324 323 317 311 310 310 309 308 309 308 306 305 306 307 307 306 305 306 307 306 307 309 309 311
328 330 329 327 326 326 324 324 324 323 312 310 309 308 306 306 305 306 304 304 303 304 304 304 305 305 305 305 305 305 305 305 306
331 328 327 326 326 325 324 324 324 311 309 308 307 306 304 304 303 303 303 303 303 303 303 303 301 299 299 298 298 298 298 298 298
328 327 327 326 325 325 325 324 310 309 307 305 304 303 303 303 302 302 302 302 302 301 301 300 300 299 298 297 297 297 297 297 297
327 327 327 326 325 324 324 311 309 308 307 305 303 303 302 302 302 301 301 300 300 301 301 299 298 298 298 297 297 297 297 297 297
328 328 327 326 325 324 311 310 309 309 308 306 303 302 302 302 301 300 300 300 300 299 297 297 297 297 297 297 296 296 296 296 296
328 329 328 326 324 311 310 311 311 310 309 307 304 303 301 300 300 300 299 298 300 298 297 296 296 295 296 296 296 296 296 295 295
329 330 327 325 311 310 311 311 311 311 309 307 304 302 301 300 300 300 299 298 297 296 295 295 295 295 295 295 295 295 295 295 294
329 330 327 324 309 310 311 311 311 311 309 305 302 302 302 300 299 299 298 297 296 295 295 295 295 295 294 294 294 294 294 294 293
330 328 324 312 309 311 311 311 310 308 308 304 300 300 302 300 299 298 297 296 296 295 295 295 294 294 293 293 293 292 292 292 291
329 326 313 309 310 311 311 311 310 308 305 302 299 297 296 296 297 297 296 296 295 294 294 294 294 293 292 292 292 291 291 291 292
326 326 309 309 310 310 310 310 309 307 303 300 297 295 295 295 294 295 295 295 294 294 293 293 292 292 291 291 290 290 290 291 292

GFSFLT1_850_thetae_036.txt.gz
Theta_e
318 315 315 315 313 312 313 314 315 313 316 316 318 320 322 329 330 329 329 327 326 325 324 322 319 319 320 326 327 326 325 325 316
322 318 316 317 317 317 317 317 319 320 322 323 325 326 326 330 330 330 329 329 327 326 326 327 327 330 329 322 321 326 321 322 318
326 322 317 317 318 319 321 322 323 324 326 327 327 327 325 327 329 329 329 328 326 327 328 328 326 329 329 331 330 326 325 328 326
328 326 320 317 320 322 323 324 326 327 327 327 326 326 326 329 328 327 328 326 325 325 325 325 325 326 325 324 326 328 329 331 330
330 328 323 318 322 323 324 326 327 326 325 324 324 323 325 326 326 326 326 323 321 319 318 320 323 322 321 322 322 321 321 323 325
329 328 323 320 323 325 327 328 327 325 323 322 322 322 321 322 322 322 319 316 317 316 314 314 314 314 315 315 316 316 316 317 317
330 330 324 321 324 326 328 327 325 324 322 321 321 318 317 318 316 314 313 312 312 313 312 312 311 311 312 311 311 311 311 311 312
329 324 318 324 325 327 326 326 325 325 324 323 319 312 311 311 311 310 310 310 308 311 309 309 308 308 308 307 306 306 306 307 307
325 324 328 329 329 326 326 325 324 324 322 313 311 310 308 308 308 307 306 306 305 307 306 305 305 304 305 305 306 306 306 306 306
326 329 329 329 328 326 325 324 324 323 314 310 308 307 306 306 305 304 304 304 303 303 303 304 304 304 302 300 300 299 299 299 299
328 329 330 326 326 325 325 324 324 315 310 308 306 305 304 304 303 303 303 303 303 303 303 302 301 300 300 299 299 298 298 298 298
328 330 327 326 325 325 324 324 320 310 309 308 306 305 304 303 302 302 302 302 302 302 301 301 300 300 299 298 298 298 298 298 298
330 327 327 326 325 325 324 324 310 310 310 309 307 305 304 303 302 302 301 301 301 301 301 300 298 298 298 298 297 297 297 297 297
329 327 327 327 325 325 323 311 310 311 311 310 309 306 304 302 302 301 301 300 300 299 298 299 297 297 298 297 297 297 297 296 296
328 327 327 327 326 325 312 310 312 312 312 311 308 307 303 302 300 300 300 299 299 298 298 297 297 297 296 296 296 296 296 295 295
328 328 328 328 326 321 310 311 312 312 312 311 309 305 303 302 301 300 300 298 298 298 297 297 297 296 296 295 295 295 295 295 294
329 328 329 329 326 315 310 311 312 312 311 310 306 303 302 301 301 300 299 298 297 297 296 296 296 296 295 295 294 294 294 293 293
329 328 329 329 324 311 311 311 312 312 311 309 306 301 301 301 299 299 298 298 297 297 296 296 295 295 294 294 293 293 292 292 293
330 329 329 326 320 310 311 311 311 311 310 309 305 301 299 297 297 297 298 297 296 296 295 295 294 294 293 293 292 292 291 292 294
327 328 328 323 313 310 311 310 310 310 309 307 303 299 297 296 295 295 296 295 295 294 294 293 293 292 292 292 291 291 291 292 293

GFSFLT1_850_thetae_039.txt.gz
Theta_e
313 314 313 311 311 312 313 318 324 313 316 317 319 322 327 328 330 329 329 329 327 325 327 324 325 325 321 322 325 322 319 326 321
315 315 316 315 315 314 314 315 317 320 323 324 325 326 329 329 329 328 328 328 327 327 328 329 329 330 330 330 324 324 325 321 322
317 316 317 317 318 319 321 322 323 324 326 326 326 325 325 329 328 328 326 326 325 328 327 327 326 327 327 328 330 332 331 328 329
321 318 316 318 320 321 322 323 325 327 326 325 325 325 329 328 327 326 327 326 324 322 321 324 326 325 324 323 324 325 326 327 330
328 323 317 319 321 322 323 324 325 325 323 322 323 324 326 325 325 326 324 322 319 317 318 318 316 315 315 316 317 318 319 319 321
330 327 320 319 321 323 325 326 325 323 322 321 321 321 321 322 322 321 320 316 315 315 313 313 313 313 312 312 312 312 312 312 313
329 327 320 321 323 323 326 326 325 323 322 322 322 318 316 314 314 314 312 312 312 318 312 311 311 311 310 309 308 308 308 308 308
329 327 325 321 324 324 326 325 325 324 324 323 317 312 310 310 310 310 309 309 309 312 309 308 307 306 306 305 305 305 306 306 306
328 326 319 324 326 326 326 325 324 323 322 313 311 309 308 307 307 306 306 305 305 307 305 304 304 304 304 304 302 301 300 300 300
325 324 328 327 327 326 326 325 323 323 316 311 309 307 306 305 305 304 304 304 303 303 303 303 303 302 301 300 300 299 299 299 298
320 327 328 328 327 326 325 324 323 322 311 309 308 307 305 304 304 303 303 303 303 302 302 301 301 301 301 300 299 299 298 298 298
326 328 329 329 326 325 325 324 324 314 310 310 309 308 305 303 303 303 302 302 302 302 301 301 301 300 298 298 298 298 298 298 298
327 328 328 328 326 325 325 324 323 310 311 311 310 309 306 304 303 302 302 302 301 301 300 300 299 299 298 298 298 297 297 297 297
329 328 329 327 326 325 325 323 312 311 312 312 310 309 306 303 302 302 301 301 300 299 299 298 298 298 297 297 297 297 297 296 296
330 329 328 327 326 325 325 317 310 312 312 312 311 308 305 303 302 301 300 300 300 299 298 298 297 297 296 296 296 295 295 295 295
330 330 327 327 327 326 325 311 311 312 313 312 311 308 306 304 303 301 301 300 299 298 298 297 297 296 296 296 295 295 295 294 294
332 330 327 327 327 326 325 311 312 312 312 312 311 307 305 304 302 301 299 299 298 298 297 296 296 296 296 295 294 294 293 293 294
332 331 328 327 327 326 322 311 312 312 312 312 311 307 304 303 301 300 299 298 298 297 296 296 295 295 294 294 293 293 293 292 295
332 331 328 327 327 324 317 311 312 312 311 311 310 308 305 302 300 299 298 298 297 296 296 295 294 293 293 292 292 292 292 292 295
332 330 327 328 327 324 311 311 311 311 311 310 309 307 303 300 298 298 298 297 297 296 295 295 293 292 292 291 291 291 291 293 294

GFSFLT1_850_thetae_042.txt.gz
Theta_e
312 311 310 313 318 318 328 330 329 315 314 316 320 325 327 329 328 328 328 327 328 325 324 325 328 330 324 320 322 321 320 323 325
314 314 313 312 312 312 314 315 315 319 322 324 326 327 329 328 328 327 327 327 326 330 329 330 331 330 330 331 326 324 326 323 323
315 316 316 316 316 316 318 320 322 323 325 326 325 325 328 327 327 327 326 325 324 325 325 326 329 329 329 329 333 333 333 330 330
316 316 317 318 319 321 322 323 325 326 325 324 325 325 327 327 327 326 327 326 322 321 322 325 326 325 323 322 323 324 324 324 327
319 317 317 320 321 322 323 324 325 324 322 323 324 325 326 325 324 325 324 323 318 322 321 318 316 314 314 314 314 314 315 317 319
325 322 317 320 321 322 324 325 325 323 321 321 320 320 320 320 321 321 320 318 315 315 315 313 313 313 312 311 311 311 311 311 311
329 326 318 321 322 324 325 325 324 322 321 321 321 318 315 315 315 314 313 312 315 317 313 312 311 310 309 307 306 306 305 306 306
328 327 321 320 323 324 325 325 324 324 323 322 319 314 311 311 310 310 309 308 315 315 309 308 306 305 304 304 304 304 304 303 303
325 326 322 318 322 324 325 325 324 323 323 319 311 310 308 308 307 306 306 305 309 308 306 304 304 303 303 302 300 300 300 299 299
325 325 320 320 324 326 325 324 323 323 322 312 309 308 307 306 305 304 304 303 303 303 303 303 303 302 300 300 300 300 299 299 299
324 327 323 326 326 327 325 324 323 323 319 310 308 307 306 305 304 303 303 303 302 302 302 301 301 300 300 299 298 298 298 298 298
325 323 325 327 328 326 325 324 323 323 314 309 309 308 307 305 304 303 303 302 302 301 301 301 300 300 298 298 298 298 298 298 298
323 322 326 328 328 326 325 324 323 323 310 311 310 309 307 306 304 303 302 302 301 301 300 299 299 299 298 297 297 297 298 297 297
324 325 327 328 329 327 325 324 323 317 311 312 311 310 308 305 303 302 301 301 301 300 299 299 298 298 297 297 297 297 296 296 296
327 327 327 328 329 327 325 325 323 310 312 312 312 311 307 305 303 302 301 301 300 299 299 298 298 298 297 297 296 296 296 295 295
330 328 328 328 329 326 325 325 320 310 312 312 311 309 307 305 304 302 301 300 300 299 298 298 298 297 297 296 295 295 295 294 294
331 330 329 329 329 326 326 325 318 311 312 312 312 309 307 305 304 302 301 300 299 298 298 297 297 296 296 295 294 294 294 293 294
330 330 330 330 329 326 326 325 318 311 312 312 312 310 308 306 305 301 300 300 299 298 297 296 296 295 295 294 294 293 293 293 295
330 330 331 331 330 327 327 325 314 311 312 312 311 311 310 307 302 301 299 299 298 297 296 295 295 294 294 293 293 292 292 293 295
330 328 329 331 330 327 327 325 314 311 311 311 311 310 309 307 304 301 299 298 297 296 296 295 294 293 293 292 292 291 291 292 294

GFSFLT1_850_thetae_045.txt.gz
Theta_e
310 310 312 321 327 330 330 330 329 319 312 315 320 324 327 328 327 327 326 327 326 328 323 327 329 331 327 322 322 322 322 320 326
312 310 311 313 316 318 324 326 318 317 320 322 324 326 327 327 327 327 326 327 329 330 328 329 331 330 330 331 327 329 329 327 325
314 314 313 312 312 313 314 316 320 322 324 324 325 327 327 327 326 326 325 325 323 322 323 325 330 330 329 330 333 332 332 331 330
315 316 316 316 317 319 320 322 324 326 325 325 325 323 325 327 326 326 326 325 322 320 325 324 325 323 323 322 322 322 322 323 325
316 316 317 319 320 321 322 324 325 324 323 322 324 326 326 325 323 324 323 322 320 321 321 318 316 314 313 312 312 313 313 314 317
318 316 318 320 321 322 324 324 324 322 321 321 321 321 321 321 320 320 320 318 320 315 314 314 314 313 310 310 309 309 309 309 309
322 320 317 320 321 323 324 325 323 322 320 320 320 319 317 315 316 315 314 312 320 314 312 312 311 309 307 306 305 305 305 305 305
328 325 318 321 322 323 324 325 324 323 323 322 320 315 312 310 310 310 309 311 316 311 307 307 306 305 304 304 303 302 301 301 300
327 327 321 319 322 323 324 324 324 323 323 322 314 311 309 308 307 306 306 307 314 308 305 304 303 303 303 301 301 301 301 300 300
327 327 325 322 321 323 324 324 324 323 322 320 311 309 308 306 305 304 304 303 303 304 303 303 302 301 301 301 300 299 299 299 299
326 326 326 319 321 325 325 325 324 322 322 318 309 308 308 306 305 304 303 303 303 302 302 302 301 301 300 299 299 299 299 299 299
325 327 326 322 325 326 326 325 323 322 322 314 309 309 308 307 305 304 303 302 302 301 301 301 300 300 299 299 298 298 298 298 298
322 326 326 325 327 327 326 325 324 323 322 310 310 310 309 308 306 303 303 302 301 301 300 299 299 298 298 298 297 297 297 297 297
323 325 325 324 327 328 327 325 324 323 322 309 310 310 309 307 304 303 302 301 301 300 299 299 298 298 298 298 297 297 296 296 296
331 326 324 325 327 328 328 325 324 323 318 310 311 310 309 307 305 303 302 301 301 300 299 298 298 298 297 297 297 296 296 295 295
332 330 325 326 327 327 328 325 324 323 315 310 311 310 309 306 306 304 302 301 300 300 299 299 298 298 297 297 296 295 295 295 294
331 331 328 327 327 328 328 327 325 324 313 311 312 310 308 307 306 305 303 302 301 300 299 298 297 297 297 296 296 295 295 294 294
331 330 330 328 328 328 328 328 325 324 316 311 312 310 310 307 306 305 302 301 300 300 298 297 296 296 296 295 295 294 293 293 294
330 330 329 330 329 329 328 328 326 325 317 311 312 311 311 309 307 304 302 301 300 299 298 297 296 296 295 295 294 293 292 292 295
330 330 329 328 330 329 329 327 326 326 319 311 312 311 310 310 308 305 303 300 299 298 297 296 296 295 294 293 293 292 292 291 291

GFSFLT1_850_thetae_048.txt.gz
Theta_e
310 312 324 327 326 329 330 329 328 317 311 313 318 322 326 326 326 325 327 327 331 331 327 330 332 331 326 323 325 322 325 322 323
310 310 314 324 327 329 329 329 321 315 317 319 323 325 325 326 326 325 325 326 331 328 328 329 330 330 331 331 332 332 331 329 327
312 311 311 314 316 315 319 317 319 321 322 323 325 326 327 325 325 324 323 326 322 320 321 326 329 329 328 329 330 330 331 331 331
314 314 313 313 313 314 317 321 322 324 325 325 324 323 325 326 325 324 324 323 322 323 324 323 322 321 319 320 321 321 321 322 324
316 316 316 317 318 320 321 322 324 324 323 322 323 325 326 325 323 323 322 321 321 319 319 317 315 313 312 311 311 311 311 312 313
316 316 318 319 320 321 322 323 323 323 321 321 321 321 321 320 319 319 318 320 318 314 314 314 312 309 308 308 307 307 307 307 307
317 316 318 320 321 322 323 324 323 321 320 319 319 319 317 315 315 314 313 317 318 311 310 310 309 307 305 304 304 304 304 304 304
321 320 317 320 321 323 324 324 323 322 322 322 321 318 313 310 310 310 309 314 313 307 305 306 305 304 303 303 303 302 301 301 301
326 325 322 319 321 323 324 325 323 323 323 322 320 312 310 308 307 307 306 307 309 306 305 304 303 303 302 302 302 302 301 301 300
327 327 326 319 322 322 324 325 324 323 322 322 317 310 308 307 306 305 304 304 304 304 304 303 302 301 301 301 301 300 300 299 299
325 327 327 325 322 322 324 325 324 323 322 322 315 309 308 307 306 305 304 303 303 303 302 302 301 301 300 300 300 300 299 299 299
324 326 325 325 322 321 325 325 324 323 322 322 314 309 309 308 306 305 303 303 302 302 301 301 300 300 299 299 298 298 299 299 299
322 324 326 326 323 322 326 326 325 323 322 322 312 309 309 308 306 305 303 302 302 301 301 300 299 299 298 298 298 298 298 297 298
320 321 324 328 326 325 326 327 325 323 322 322 311 310 310 309 307 304 303 302 301 301 300 299 299 299 298 298 298 298 297 297 297
323 320 322 327 326 325 327 327 326 324 322 321 311 310 311 309 307 305 303 302 302 301 300 300 299 299 298 298 298 297 297 297 296
329 328 324 326 325 323 326 327 327 324 323 321 310 310 311 310 307 306 304 303 302 301 301 300 299 299 298 298 297 297 296 296 295
332 331 330 327 325 323 326 327 327 325 322 321 310 310 309 310 308 306 305 305 303 302 301 300 299 299 298 297 297 296 296 295 295
333 331 330 329 327 325 326 327 327 327 324 322 312 310 311 309 308 306 305 305 303 302 301 300 299 298 297 297 296 295 295 294 293
331 332 329 328 328 327 326 327 327 325 323 323 317 310 311 310 309 307 306 304 302 301 301 300 299 298 297 296 295 294 293 293 292
330 329 329 328 328 328 327 327 326 327 325 325 323 313 310 310 309 308 308 305 304 301 300 299 298 297 296 295 294 293 292 292 292

GFSFLT1_850_thetae_051.txt.gz
Theta_e
313 329 332 333 334 334 333 329 325 315 311 313 318 323 324 324 324 326 329 331 332 330 330 333 330 330 325 325 326 324 328 325 320
311 316 326 324 328 329 329 328 322 314 316 319 323 324 325 325 325 325 326 331 330 330 330 331 330 332 332 332 332 332 332 330 326
310 312 318 322 326 327 327 324 316 319 321 323 324 325 325 324 323 322 325 324 324 322 321 323 328 328 327 328 330 330 331 331 332
312 312 313 315 314 314 316 317 320 322 323 324 323 323 324 324 323 321 322 324 325 323 323 320 319 317 315 317 321 323 321 322 326
315 314 313 313 314 316 319 321 323 324 323 322 322 323 324 324 322 321 320 323 321 317 316 314 313 312 311 311 311 311 311 311 312
316 316 317 318 319 321 321 323 323 323 321 321 322 322 321 320 319 318 319 319 317 314 314 313 311 308 307 307 306 306 306 306 306
316 317 318 319 321 322 323 323 323 321 320 320 319 318 317 316 315 315 314 317 315 312 308 309 308 306 305 304 304 304 304 304 303
317 316 318 320 321 321 322 323 323 322 321 321 321 319 315 311 311 310 311 319 312 308 306 305 305 304 303 303 302 302 302 302 301
322 320 317 319 320 322 323 323 323 323 322 322 322 316 311 309 308 307 307 310 308 307 304 304 303 303 302 302 302 302 301 300 300
325 325 324 320 320 322 323 324 323 323 323 322 321 314 309 308 307 306 305 305 306 304 304 303 303 302 301 301 301 301 300 300 300
324 326 327 326 319 321 322 323 324 323 323 322 321 314 309 308 307 306 304 304 303 303 303 302 302 301 301 300 300 300 299 299 300
322 324 326 327 325 322 321 323 324 324 323 322 321 315 309 308 308 306 305 303 303 302 302 301 301 300 299 299 299 299 299 300 300
320 322 324 326 327 325 321 323 325 324 323 322 321 316 309 309 308 307 305 303 303 302 301 301 300 300 299 299 299 299 299 298 298
324 321 322 325 326 327 322 323 326 325 324 322 321 318 309 309 309 307 304 303 302 302 301 300 300 300 299 299 299 299 298 298 298
330 327 322 323 326 327 326 324 326 326 323 321 321 319 309 310 309 308 305 303 302 302 302 301 301 300 300 299 299 298 298 297 297
334 333 327 322 324 325 327 325 327 327 325 321 320 318 309 310 309 308 306 304 303 302 303 301 301 300 299 299 299 298 298 297 296
331 333 331 324 321 324 327 325 325 327 326 321 319 313 311 309 310 309 306 305 304 303 303 302 301 301 300 299 298 298 297 297 296
331 330 331 329 326 324 326 325 324 327 326 324 319 313 312 311 310 309 307 306 305 304 303 302 301 301 300 299 298 297 296 295 295
331 330 330 329 329 329 327 326 324 326 327 324 323 323 318 312 310 309 308 305 304 306 304 304 302 301 299 298 297 297 295 294 293
328 330 330 329 329 329 329 328 325 325 326 326 326 325 322 319 312 310 309 307 306 304 303 302 302 300 299 297 297 295 294 293 293

GFSFLT1_850_thetae_054.txt.gz
Theta_e
331 334 335 336 339 339 336 330 325 312 312 316 320 324 324 325 329 331 331 335 332 331 333 332 331 328 326 328 329 326 329 321 319
317 332 333 334 334 335 332 327 321 314 316 320 323 323 324 329 331 332 334 332 331 332 333 331 332 332 333 332 333 333 332 329 326
311 321 326 328 330 329 328 325 315 318 321 323 324 325 324 329 329 330 331 327 330 327 321 322 329 329 328 328 329 329 331 331 331
311 314 322 323 326 327 325 317 320 321 323 324 324 325 324 329 329 328 330 327 327 325 322 320 318 316 314 314 318 321 323 323 327
312 312 315 317 316 315 316 320 322 324 323 323 323 323 325 328 327 327 328 326 322 322 319 315 313 311 310 310 310 310 310 311 312
315 314 313 313 315 317 321 322 323 323 321 321 322 323 326 326 326 326 320 319 316 313 312 310 310 308 307 306 306 305 305 305 306
324 317 317 319 328 327 329 323 323 322 321 320 319 322 319 322 323 324 317 315 313 311 308 307 306 305 304 304 304 304 303 303 303
316 319 319 325 326 327 326 323 323 321 320 320 321 320 317 319 319 315 312 317 312 308 306 305 305 304 304 303 303 302 302 302 302
324 325 327 329 328 330 329 327 323 322 322 322 322 320 313 311 310 314 309 312 308 307 305 304 304 303 303 302 302 302 301 301 301
327 327 325 328 329 329 328 324 323 323 323 322 322 320 312 309 308 315 307 307 307 306 304 304 303 302 302 302 302 301 301 301 300
329 330 329 327 326 328 327 323 323 323 323 322 321 321 313 309 307 314 314 306 306 305 304 303 302 302 302 301 301 300 300 300 300
326 328 331 330 328 325 323 323 323 324 323 323 321 321 315 309 308 307 315 307 304 303 303 302 302 301 301 300 300 300 300 300 300
322 325 329 330 329 328 323 321 321 324 324 323 322 321 319 309 308 308 307 306 307 303 302 302 301 300 300 300 300 300 300 299 299
329 325 327 326 328 327 327 324 321 324 324 323 322 321 320 309 309 308 307 306 304 303 302 302 301 300 300 299 299 299 299 299 298
334 331 327 327 327 327 326 326 323 323 325 324 322 321 320 312 309 309 308 306 304 303 302 302 301 301 301 300 300 299 299 299 298
334 333 332 329 326 325 326 327 327 323 326 325 322 321 320 317 309 309 308 308 305 303 302 302 302 301 301 300 300 300 299 299 298
330 331 332 332 331 326 325 326 328 325 325 326 315 314 315 319 313 309 309 308 306 305 304 303 303 302 301 301 301 300 300 298 297
331 330 331 330 331 330 325 323 325 328 325 326 321 316 318 314 316 312 310 308 306 305 304 303 303 302 301 300 300 300 299 298 297
327 330 329 331 331 329 329 326 323 327 327 325 326 323 317 314 315 316 316 309 308 305 305 303 303 302 301 301 299 299 299 297 296
322 322 327 328 329 330 329 328 326 324 327 325 325 325 322 320 321 315 314 315 318 308 304 303 303 302 300 300 300 299 298 297 295

GFSFLT1_850_thetae_057.txt.gz
Theta_e
334 336 337 335 336 338 335 332 324 311 312 317 321 323 325 330 332 333 334 333 332 334 333 331 331 332 332 333 332 333 329 319 320
328 334 335 336 338 336 335 329 319 313 316 321 323 324 327 331 332 332 332 332 334 333 332 332 332 333 332 333 332 332 332 331 330
314 328 332 333 334 335 332 325 315 317 320 322 324 324 325 330 329 330 330 329 330 327 321 322 328 329 329 327 327 329 331 331 331
312 318 326 328 329 328 326 322 318 320 322 323 324 323 328 330 329 330 328 328 325 320 317 318 317 315 314 313 313 318 322 325 328
312 314 319 322 324 325 322 317 320 323 323 322 322 322 325 329 328 330 327 327 323 317 312 311 310 310 309 309 309 309 310 311 312
313 313 315 317 316 315 316 319 322 323 322 321 322 322 328 328 327 328 322 319 316 313 311 309 309 308 306 306 305 305 305 305 305
322 317 314 313 315 318 324 321 323 322 322 320 320 325 326 325 325 326 318 314 314 312 308 306 306 305 304 304 304 304 303 303 303
323 320 316 317 320 325 326 323 322 322 325 323 324 323 323 322 322 322 312 310 314 309 307 305 305 304 304 303 303 303 303 302 302
326 328 323 328 328 328 329 330 326 323 321 321 322 322 320 318 319 317 311 310 309 307 306 305 304 304 303 303 303 302 302 301 301
328 328 329 330 331 331 331 331 328 324 321 320 320 320 317 313 314 316 315 308 307 306 305 304 304 303 303 302 302 302 301 301 301
330 330 329 329 330 330 330 330 327 324 320 319 320 317 315 313 312 316 316 309 307 306 305 304 303 303 302 302 301 301 301 301 301
332 331 332 331 330 330 330 329 327 323 319 318 320 320 318 314 311 312 319 314 308 306 304 303 303 302 302 301 301 301 301 301 301
331 331 331 332 331 331 329 329 327 322 319 319 319 320 320 318 311 311 314 314 310 307 304 303 302 302 301 301 301 301 301 302 302
332 331 331 331 331 331 330 329 326 322 320 319 316 321 320 320 312 310 310 310 310 308 306 303 302 302 301 301 300 300 301 302 302
334 333 331 331 331 331 331 329 327 323 321 318 316 320 321 319 317 310 309 310 309 306 306 304 303 303 301 301 300 300 301 301 301
335 334 333 332 331 331 329 329 327 324 321 319 317 316 320 320 319 314 309 310 310 308 305 305 304 304 302 302 301 301 300 301 300
334 334 333 333 332 331 331 329 328 324 323 320 318 316 315 320 320 319 312 309 310 309 307 306 304 304 304 303 303 302 301 301 300
336 334 334 333 332 332 331 330 329 325 323 324 322 319 319 319 317 319 318 309 309 309 307 307 306 304 303 304 303 302 302 301 300
325 330 335 334 333 333 332 331 330 327 323 323 324 322 320 318 314 314 315 312 308 307 307 307 307 306 303 304 304 304 302 301 300
322 321 325 330 331 331 331 331 330 329 325 324 324 324 322 319 318 318 315 312 308 308 305 305 305 304 303 303 303 302 301 299 299

GFSFLT1_850_thetae_060.txt.gz
Theta_e
335 336 329 337 337 336 333 332 316 312 315 319 322 325 330 331 331 332 333 332 334 333 331 333 333 334 334 333 333 331 329 319 316
333 335 336 336 336 334 334 328 314 314 318 321 322 325 331 330 330 330 332 334 333 332 332 331 331 331 332 331 329 332 332 332 330
322 330 333 334 336 335 334 324 315 317 320 321 322 326 330 329 329 328 329 330 330 328 321 320 324 329 328 325 324 328 330 331 331
312 322 326 328 330 332 327 321 317 319 321 322 322 326 329 329 328 330 328 327 324 318 314 315 315 314 313 312 312 315 320 325 327
312 315 319 320 323 323 322 318 319 321 322 321 321 325 329 329 326 328 328 325 323 314 311 309 309 309 308 307 307 308 309 310 312
313 313 317 318 319 319 317 317 320 321 321 320 320 323 328 328 327 327 326 319 315 311 309 307 306 306 306 305 305 305 305 305 305
315 314 314 316 315 314 316 318 320 321 320 319 319 324 326 326 326 325 324 314 312 310 307 306 305 305 304 304 304 304 303 303 303
321 319 316 315 315 316 318 320 321 321 322 321 319 324 324 323 323 321 318 311 311 309 306 305 305 304 304 304 303 303 303 303 302
324 318 318 316 317 318 320 322 322 321 324 324 323 322 321 321 320 319 315 311 309 308 307 305 304 304 304 303 303 303 302 302 302
326 321 322 320 321 327 325 329 330 325 322 321 321 322 321 317 316 314 313 313 309 308 307 305 304 304 303 303 303 302 302 302 302
330 327 327 326 330 331 330 331 330 329 324 321 320 320 319 317 314 313 313 314 310 308 307 305 304 304 303 303 303 302 302 302 302
332 330 329 328 328 330 330 330 330 328 324 321 320 320 319 317 314 312 312 312 312 310 308 306 304 303 304 304 304 304 303 303 303
332 332 330 331 331 329 329 330 329 328 324 321 319 319 320 318 317 312 311 312 312 311 309 306 305 304 304 303 304 304 305 305 306
334 332 331 330 332 332 331 329 329 328 326 322 319 318 320 320 319 315 311 311 311 311 311 308 305 305 304 304 305 305 305 306 307
335 334 332 331 330 332 332 331 329 328 327 322 320 317 318 320 320 319 315 310 311 311 311 309 307 305 305 305 305 304 305 306 306
333 333 334 333 331 331 330 331 329 329 327 323 320 316 315 317 320 320 319 313 310 310 311 310 308 305 304 304 305 305 303 304 304
336 333 333 332 332 331 331 330 330 329 328 323 320 315 313 317 320 320 319 318 314 310 310 310 308 306 304 304 304 305 304 304 303
335 335 335 333 332 332 331 331 330 330 328 327 321 316 317 319 320 321 321 318 317 313 309 309 308 307 305 304 304 305 304 302 302
328 330 333 333 334 332 332 331 331 330 329 326 324 321 321 320 318 318 317 317 315 315 310 308 307 305 305 304 303 304 304 303 302
329 328 327 330 332 331 331 330 330 330 330 328 327 323 321 319 320 320 318 316 315 313 310 308 306 305 303 303 303 303 303 301 301

GFSFLT1_850_thetae_063.txt.gz
Theta_e
330 325 336 338 337 334 333 322 312 315 318 320 325 329 331 331 331 333 332 333 333 331 334 333 333 334 333 331 331 331 324 317 318
334 332 336 337 335 333 333 319 314 317 320 321 327 330 329 329 329 331 334 334 333 332 332 329 330 331 331 329 330 332 332 331 330
330 332 334 335 332 333 333 318 316 318 320 320 325 329 328 328 328 327 330 330 329 326 321 318 319 326 328 324 322 326 329 331 331
319 325 329 330 334 333 327 317 318 319 320 321 325 328 329 328 327 327 326 324 323 317 313 313 314 314 312 311 312 315 321 325 327
313 318 320 321 323 324 320 317 318 320 320 320 322 327 328 327 326 325 325 321 319 312 310 308 307 308 307 307 307 308 310 311 313
312 314 317 318 319 318 317 316 318 320 320 319 320 325 326 326 325 325 325 319 313 311 308 307 306 306 305 305 305 305 305 305 306
314 314 315 317 317 317 316 317 318 320 319 319 319 323 326 326 326 324 322 321 312 310 307 306 305 305 305 304 304 304 304 303 303
316 316 315 315 315 315 316 318 319 320 320 319 319 321 323 324 323 320 319 317 311 309 307 306 305 305 305 304 304 304 304 303 303
324 320 318 317 315 315 317 319 320 320 320 321 320 321 322 322 320 319 317 315 311 309 308 307 305 305 305 304 304 304 303 303 303
329 326 320 318 317 317 319 320 323 322 321 322 322 321 321 321 319 318 315 313 313 309 309 307 306 305 304 304 304 304 303 303 303
334 331 325 322 323 322 326 326 328 328 327 322 321 321 321 321 320 317 315 313 313 311 309 308 306 305 304 304 304 304 304 304 304
335 333 329 326 326 325 329 330 331 330 330 328 322 320 320 320 320 320 317 314 313 313 310 309 307 305 305 304 304 304 305 304 304
334 333 332 329 328 328 327 330 330 330 330 328 324 321 319 319 319 320 319 316 313 313 312 310 308 306 305 305 305 305 305 305 305
335 333 332 331 330 330 330 329 329 329 329 328 326 323 320 319 318 319 320 320 316 312 312 311 309 307 305 305 305 305 306 306 306
336 335 334 333 332 330 331 331 331 329 328 328 327 325 322 318 318 318 319 321 319 314 311 311 310 308 305 304 304 304 305 305 306
334 334 334 334 334 332 331 331 332 331 330 329 327 326 322 318 318 317 317 318 320 319 312 311 311 309 307 303 303 303 303 303 303
330 334 334 334 334 333 332 331 331 331 331 329 327 323 321 320 318 317 318 318 317 319 318 311 310 309 308 305 303 303 302 302 301
326 329 331 333 333 333 332 331 331 330 330 329 327 321 320 320 320 320 318 319 318 316 317 315 310 309 308 305 303 303 301 300 300
327 328 330 329 329 330 330 329 331 330 330 330 328 326 323 320 319 321 321 319 317 315 312 311 310 309 307 306 304 303 302 300 298
330 328 326 327 327 327 329 329 329 330 329 329 330 328 325 322 320 320 321 320 318 317 312 309 308 308 306 306 305 303 302 302 300

GFSFLT1_850_thetae_066.txt.gz
Theta_e
329 337 338 337 335 332 328 313 314 316 319 325 329 329 331 331 331 332 333 333 332 334 331 334 333 333 332 330 332 330 319 316 325
329 335 336 336 334 330 326 314 317 318 321 325 325 327 328 329 330 332 333 333 332 332 329 328 328 330 331 330 332 332 332 331 330
329 333 334 334 330 328 323 315 317 319 320 323 326 327 327 327 328 330 331 331 330 327 319 317 316 322 327 325 324 329 331 331 331
326 327 331 331 329 328 322 316 318 319 320 322 326 325 326 325 324 323 323 326 323 317 312 312 312 313 314 312 312 316 323 326 328
321 327 329 329 330 327 320 316 318 319 319 320 324 325 325 325 325 323 322 319 316 313 310 308 307 307 307 307 308 309 311 313 317
313 318 323 325 324 323 320 317 318 319 319 319 321 322 322 321 322 323 322 320 314 311 309 307 306 306 306 305 305 305 306 307 307
313 314 317 318 319 320 319 317 319 320 319 319 320 322 321 320 322 322 322 320 317 311 309 307 306 305 305 305 304 304 304 304 304
315 314 314 316 317 316 316 316 319 320 320 319 320 321 322 323 322 321 320 319 315 311 309 308 306 305 305 305 304 304 304 303 303
321 320 318 317 315 315 315 316 318 319 320 319 319 319 321 322 321 320 319 317 315 313 310 308 307 305 305 304 304 304 303 303 303
325 327 325 320 318 316 316 318 320 320 320 321 321 320 321 321 322 321 319 317 314 313 312 309 308 306 305 304 304 303 303 303 303
332 333 332 328 322 321 318 322 321 324 324 323 321 321 321 321 321 321 319 318 315 313 313 310 309 307 305 304 304 304 303 304 303
334 334 334 332 328 325 324 326 327 328 329 328 327 325 321 320 320 320 320 318 317 314 313 312 310 308 305 304 304 304 303 304 304
335 334 334 333 331 329 327 326 327 328 329 329 329 329 325 321 320 320 319 318 318 317 314 313 312 310 306 305 304 303 304 304 304
335 334 333 334 333 331 330 329 329 328 328 329 329 329 328 325 321 319 319 319 319 318 316 313 312 311 307 307 308 304 303 303 304
337 336 335 335 334 333 332 331 330 330 330 329 329 329 328 326 325 322 319 319 319 319 318 315 312 312 310 306 310 310 304 303 303
335 334 333 332 333 332 333 333 331 331 331 330 329 329 328 327 327 325 321 319 318 318 317 316 314 312 311 308 305 310 308 303 301
331 330 330 331 331 333 332 333 332 331 331 330 329 327 327 327 327 327 324 321 319 317 318 316 314 313 311 310 307 304 308 308 303
332 331 327 327 329 331 332 333 332 331 331 330 329 327 325 326 325 325 324 322 319 318 317 317 316 313 312 310 309 305 304 306 307
326 327 327 327 329 329 328 329 329 330 330 329 329 328 328 324 323 323 323 321 318 315 314 315 316 314 311 310 309 307 304 302 303
329 328 329 328 326 325 327 326 326 327 328 328 327 326 328 327 325 322 323 322 322 320 317 315 314 313 310 309 309 310 305 303 302

GFSFLT1_850_thetae_069.txt.gz
Theta_e
336 337 338 336 334 324 313 313 313 314 317 321 324 326 329 331 332 333 332 332 334 333 332 332 333 331 330 331 331 323 315 322 327
335 337 337 336 328 324 315 315 317 318 320 321 323 326 328 329 331 333 333 334 332 329 327 326 326 330 331 331 332 331 331 330 329
333 334 335 333 327 325 317 316 318 319 320 321 322 324 326 326 330 332 332 331 329 327 319 314 315 321 326 328 329 330 332 332 332
329 333 332 331 327 327 320 316 318 319 321 323 323 324 323 323 322 323 324 326 322 319 313 311 310 312 315 315 316 328 330 330 330
326 327 328 328 328 329 323 316 318 320 320 323 324 324 325 323 321 321 321 318 315 313 311 309 307 307 307 307 308 310 315 319 321
314 319 322 322 322 326 322 317 319 320 320 323 325 325 324 324 321 321 321 319 317 313 310 308 307 306 306 305 305 306 307 308 310
313 314 317 319 319 321 320 318 318 320 320 320 322 324 324 322 323 323 322 320 317 314 311 309 307 306 305 305 305 304 304 304 305
314 314 314 316 317 318 319 318 317 319 319 319 318 320 322 321 322 322 322 321 318 315 312 310 308 306 305 305 305 304 304 303 303
318 316 315 315 315 316 316 315 316 318 319 319 319 319 320 320 321 321 321 320 319 317 313 311 309 307 306 305 305 304 304 303 303
323 324 324 324 320 318 315 315 317 319 319 320 320 319 319 319 321 321 321 320 319 317 314 313 310 309 306 305 304 304 303 303 303
329 328 330 330 329 323 321 317 318 320 322 322 321 321 321 321 321 321 321 320 319 317 315 314 313 310 308 306 304 304 303 303 303
334 333 332 332 333 331 326 324 324 325 325 326 327 327 326 325 322 320 320 320 320 318 317 315 314 313 310 307 305 304 304 304 303
335 333 333 333 333 333 332 329 327 326 327 327 328 328 328 328 328 325 321 319 319 318 318 317 315 314 312 309 308 305 303 302 302
335 334 333 334 334 334 333 332 330 329 329 329 328 329 329 329 328 328 326 323 320 319 318 317 316 314 314 312 313 311 305 303 302
336 336 335 336 336 335 335 334 333 331 331 330 330 330 329 329 329 328 327 326 325 322 318 317 317 316 314 313 313 316 312 305 302
337 336 336 336 335 334 333 334 333 332 332 330 330 330 329 328 328 328 328 327 327 325 321 317 315 315 315 314 313 313 316 313 306
333 332 331 331 331 330 330 332 333 333 332 331 330 329 328 328 328 327 327 327 326 326 324 319 316 315 314 314 313 312 312 314 311
333 333 332 331 332 329 326 330 331 331 330 330 329 327 326 326 326 326 326 325 324 323 323 321 316 315 313 313 313 312 309 312 313
320 321 325 327 326 326 326 327 329 328 329 329 329 329 328 327 326 325 324 323 323 323 322 319 318 318 314 312 313 313 310 308 311
317 319 322 326 328 327 326 325 326 327 324 325 326 327 327 326 325 323 322 322 323 322 321 321 321 321 319 315 315 312 312 308 310

GFSFLT1_850_thetae_072.txt.gz
Theta_e
336 337 336 335 325 314 312 313 313 315 318 320 324 327 330 331 332 331 331 333 332 331 329 330 330 330 330 331 329 320 317 328 329
336 337 336 333 325 318 314 316 317 318 319 320 322 327 328 331 332 332 332 333 330 328 325 318 322 328 330 329 330 332 332 329 331
337 334 334 331 326 322 315 317 318 318 320 321 323 325 326 328 330 331 331 330 328 325 316 312 311 316 324 327 328 330 332 331 331
333 333 332 329 326 325 316 317 318 319 321 322 323 324 324 323 323 323 323 322 321 318 312 310 308 308 311 314 317 326 327 328 329
326 326 327 328 326 325 319 316 318 319 321 323 324 324 324 324 323 322 322 320 318 314 311 309 308 306 306 306 307 308 320 326 326
321 324 325 325 325 325 321 317 317 319 319 320 322 323 323 323 322 322 322 321 319 317 313 310 308 307 306 305 305 305 306 307 309
314 316 320 322 321 321 320 318 317 318 320 320 321 322 322 323 322 323 323 322 320 318 315 312 309 308 306 305 305 305 304 304 305
314 313 314 316 318 318 318 318 317 317 319 320 319 320 322 322 321 322 323 322 320 319 317 314 311 309 307 306 305 305 304 304 304
317 315 314 315 315 316 316 316 316 316 318 319 319 319 320 322 321 321 321 321 321 320 318 316 313 310 308 306 305 304 304 304 303
325 322 322 322 323 320 319 316 315 316 317 319 320 320 319 320 320 320 321 321 321 320 319 317 315 314 311 308 305 304 304 303 303
329 327 326 329 330 329 325 322 320 317 319 320 321 321 321 321 321 321 321 320 320 320 319 317 317 315 314 311 308 305 304 303 303
334 333 332 332 332 332 331 329 327 325 324 325 325 326 326 326 326 327 326 323 320 320 319 318 317 317 316 314 311 308 304 304 304
335 334 333 333 332 332 332 332 331 330 328 327 327 327 328 328 327 328 327 327 325 323 320 318 317 316 316 315 314 312 309 304 303
335 334 334 334 334 334 334 333 333 332 332 331 330 329 329 329 329 329 328 328 328 326 324 321 318 316 315 315 316 319 317 310 304
336 336 336 336 336 335 335 335 334 333 333 332 331 331 330 330 330 328 328 327 328 327 327 324 323 317 315 315 315 317 319 318 312
336 335 336 336 335 334 333 333 332 332 332 331 329 328 329 329 329 329 327 327 327 327 327 325 322 322 317 315 314 315 316 317 317
336 336 336 334 332 331 330 330 331 330 330 331 328 327 327 326 326 326 326 326 326 326 325 324 323 321 319 317 314 314 315 317 318
329 329 330 333 334 333 331 331 330 327 329 328 328 328 326 325 326 326 325 325 324 325 324 323 322 321 319 317 314 314 315 314 315
319 319 319 319 323 327 329 327 328 326 328 328 327 327 327 327 324 324 323 323 322 323 322 322 322 321 320 318 316 314 315 315 314
316 316 317 319 321 325 328 329 327 326 326 327 325 324 324 324 323 323 321 321 321 320 321 320 320 319 319 319 319 316 316 315 315

GFSFLT1_850_thetae_075.txt.gz
Theta_e
337 336 334 326 315 314 314 314 315 318 321 323 326 329 331 332 330 331 330 333 331 327 324 324 326 328 330 330 328 319 328 330 330
338 336 333 325 319 314 316 316 317 319 320 321 325 327 330 331 331 332 332 331 330 326 318 313 323 328 328 329 330 332 331 330 332
337 334 332 326 323 315 316 317 318 320 320 320 322 324 325 328 330 330 329 328 325 321 314 310 309 314 324 328 329 330 331 331 331
336 333 330 325 324 320 315 317 318 319 320 321 321 322 322 322 322 322 322 321 318 315 312 309 308 307 310 316 320 323 328 329 328
328 328 328 326 324 324 319 316 318 318 319 319 320 320 321 322 322 321 321 320 319 317 314 311 309 307 306 306 307 308 310 313 323
325 325 325 325 324 325 323 317 317 318 319 319 319 320 321 322 322 321 322 322 320 318 316 313 310 308 307 306 305 305 305 305 306
316 318 320 322 321 321 322 320 317 317 319 319 319 319 320 322 322 322 322 322 321 319 318 315 313 310 308 306 305 305 305 304 304
314 314 314 316 318 318 318 319 319 317 317 319 319 319 319 320 322 322 322 322 322 321 320 318 315 313 310 308 306 305 304 304 304
319 315 314 314 315 315 316 317 317 316 316 317 318 319 319 319 320 322 321 321 321 321 320 320 318 316 314 311 308 306 305 304 304
324 323 320 320 321 323 321 319 317 315 316 317 318 319 320 320 320 320 320 321 321 321 320 320 319 318 317 315 312 309 306 304 304
331 328 324 325 329 330 329 326 323 322 320 319 321 322 323 323 322 323 323 324 322 321 320 319 319 318 317 317 316 312 309 305 304
334 334 333 332 331 331 331 331 330 329 328 327 326 326 326 326 327 327 327 327 327 325 322 320 319 318 317 316 317 317 313 309 305
334 334 334 334 333 333 332 332 332 331 331 330 330 329 328 328 328 328 328 328 328 328 327 325 322 319 317 316 317 319 318 315 310
334 335 334 335 335 334 334 334 334 333 333 333 332 332 331 330 330 329 329 329 328 328 328 327 326 323 319 316 318 319 320 319 317
336 335 335 335 335 336 335 335 335 333 332 332 331 331 330 329 329 329 328 328 328 327 327 327 326 324 323 322 317 318 318 318 317
336 335 335 335 334 333 334 332 330 330 330 331 329 327 327 327 327 325 325 325 326 327 327 327 326 324 322 320 320 317 315 317 319
335 334 333 334 333 334 334 333 332 331 331 331 329 329 326 325 325 325 325 325 325 325 325 325 324 323 322 321 319 319 315 315 317
332 330 327 325 326 326 330 334 333 332 331 328 328 328 326 325 324 324 323 323 322 322 322 322 322 322 322 321 319 317 316 315 316
322 321 320 319 319 319 320 326 330 330 329 327 326 327 327 325 323 323 323 322 321 321 320 321 321 321 321 321 319 318 313 314 315
315 315 315 316 316 316 318 322 327 329 329 327 325 326 326 325 322 323 321 320 315 319 316 317 319 318 319 318 318 318 318 316 314

GFSFLT1_850_thetae_078.txt.gz
Theta_e
335 332 326 315 313 313 314 315 318 319 322 325 328 330 331 331 333 331 333 335 328 324 316 324 327 330 329 328 325 330 330 331 330
335 334 328 320 315 315 316 317 318 319 321 325 326 330 331 334 333 334 337 330 326 318 312 311 319 326 329 329 330 331 330 331 332
337 334 329 324 317 316 317 318 318 319 320 321 322 324 327 332 332 331 331 319 317 314 311 309 308 309 322 325 329 330 331 331 331
338 334 331 325 323 317 316 318 318 319 320 320 320 320 320 328 322 322 329 319 318 316 313 310 308 307 309 316 320 322 327 329 329
329 330 329 325 324 323 317 317 318 319 319 320 320 320 321 328 321 323 323 321 319 318 316 313 310 308 307 306 307 310 310 312 314
325 326 327 327 325 325 323 318 317 318 319 319 320 320 325 326 325 326 321 322 321 319 318 316 313 311 309 307 306 305 305 306 306
320 321 323 324 323 323 322 321 319 317 318 320 319 321 320 321 323 323 321 321 321 321 320 319 317 314 312 309 307 306 305 305 305
315 315 315 317 320 321 319 320 322 319 317 318 319 319 319 322 321 323 320 320 321 321 321 320 319 318 315 313 310 307 305 304 304
317 316 315 314 315 317 317 322 319 318 316 316 318 319 319 319 320 322 320 320 321 321 323 321 320 319 318 317 314 310 306 305 304
323 324 321 318 318 321 322 321 321 318 317 316 317 319 320 321 321 321 321 321 322 322 321 324 321 319 318 318 318 315 311 307 304
326 329 326 323 326 329 330 329 326 324 323 322 322 324 325 325 326 325 325 326 326 326 324 322 323 323 319 318 317 318 317 313 307
333 334 333 332 330 331 331 331 330 330 330 329 328 328 328 328 328 328 328 328 328 328 327 326 324 322 323 322 321 321 318 318 314
334 334 334 334 334 333 333 332 332 332 332 332 331 331 330 330 329 329 329 329 329 329 329 328 327 326 323 322 322 323 322 320 319
334 334 334 334 334 334 334 334 334 334 334 334 333 332 331 331 331 330 330 330 329 329 328 327 327 327 325 323 322 322 321 320 319
336 336 335 335 335 335 335 335 335 334 334 332 331 330 330 329 328 327 327 327 326 327 328 328 327 327 326 325 323 321 321 321 320
337 336 336 335 335 335 335 335 333 333 331 331 331 331 330 327 327 326 327 327 326 325 326 325 325 325 325 325 323 321 320 320 319
336 335 335 335 335 334 333 332 334 334 334 332 331 330 326 325 326 325 325 324 323 324 324 322 323 323 323 322 322 320 318 317 319
329 329 331 331 331 328 327 329 331 333 333 332 331 328 325 326 326 325 324 323 322 322 322 321 321 321 322 322 322 320 319 316 317
322 324 325 324 322 321 320 320 321 333 332 331 329 328 326 326 324 323 322 322 322 321 318 317 319 320 319 319 320 320 320 318 316
315 316 316 316 315 315 315 316 317 324 327 330 328 328 327 324 323 322 322 321 320 320 317 314 313 312 313 315 316 317 318 318 318

GFSFLT1_850_thetae_081.txt.gz
Theta_e
329 321 314 314 314 314 316 318 319 322 325 327 329 330 330 335 335 336 333 332 321 315 312 328 330 327 330 329 331 330 331 332 331
330 324 318 315 315 316 317 319 319 320 323 324 328 330 333 335 336 334 334 319 315 313 310 309 311 318 326 331 331 331 331 332 331
333 328 322 318 316 317 318 319 319 319 320 321 322 327 331 334 333 332 322 317 316 315 312 310 308 308 316 321 326 329 330 330 330
336 330 325 323 319 316 317 318 318 319 319 319 320 321 324 330 328 329 328 319 318 317 315 313 311 309 307 308 312 314 319 323 325
327 329 326 324 324 322 317 317 318 319 319 319 320 320 322 332 329 330 321 320 320 319 317 316 314 311 309 307 306 306 307 308 308
325 325 326 326 324 324 323 319 317 318 319 319 319 320 330 331 331 330 322 321 320 320 320 319 317 315 312 309 307 306 305 305 305
335 322 323 323 324 323 322 322 320 318 327 325 320 324 328 330 330 330 321 320 320 320 320 320 320 319 316 314 310 308 306 305 305
317 319 316 317 319 321 323 321 324 331 325 326 326 324 320 326 329 329 322 320 320 320 320 320 320 319 319 318 316 312 309 306 305
330 329 330 325 330 330 331 331 331 331 325 325 325 325 321 325 326 327 323 320 320 321 321 321 321 320 319 318 319 318 314 309 306
329 330 328 327 327 326 329 329 329 329 328 327 326 325 326 326 326 325 325 323 324 325 325 323 323 323 322 320 318 318 318 316 311
328 331 330 328 326 329 331 332 332 330 329 328 327 328 328 328 328 327 326 326 326 327 327 327 326 324 325 325 323 321 319 318 318
329 333 334 333 331 331 332 332 332 331 331 330 331 330 330 330 330 330 328 328 328 328 328 328 328 327 326 325 325 324 323 323 319
332 333 334 335 335 334 333 334 334 333 333 333 333 333 331 331 332 331 331 330 329 329 329 329 328 328 327 326 326 325 324 323 322
333 335 335 336 336 335 335 335 335 335 335 335 334 333 332 332 332 332 331 331 331 329 328 327 327 327 327 326 325 325 324 323 323
336 336 336 336 336 336 336 336 336 335 334 335 334 332 331 332 331 331 330 328 327 329 327 326 326 326 326 327 326 325 324 323 323
337 337 337 339 337 337 337 336 334 334 334 334 332 332 332 331 329 329 328 327 327 327 324 325 324 323 323 324 324 324 322 322 321
337 337 337 338 337 336 336 336 334 334 331 332 332 331 328 326 325 327 327 326 324 324 323 323 322 322 322 322 322 321 321 320 321
334 332 331 331 332 333 333 334 335 331 331 331 330 328 327 325 326 326 325 324 323 322 323 322 319 319 320 320 320 321 321 321 320
320 320 321 323 325 325 324 323 322 322 325 325 325 327 327 327 325 324 323 323 322 323 321 319 319 317 314 314 315 317 318 319 320
315 315 315 316 316 316 315 315 314 315 321 323 324 324 325 325 325 324 321 321 321 320 320 319 315 314 315 313 311 312 313 314 316

GFSFLT1_850_thetae_084.txt.gz
Theta_e
317 314 313 314 315 316 317 319 322 324 327 329 328 332 335 334 333 332 322 316 313 311 310 313 318 324 330 332 331 330 332 331 331
322 316 315 315 316 317 318 318 320 322 324 327 329 332 334 334 334 331 319 316 315 313 311 310 309 311 321 329 331 330 329 331 330
327 321 317 316 317 317 318 318 318 319 319 323 327 329 333 333 330 325 320 317 317 316 314 312 310 309 311 314 318 320 323 324 324
330 323 320 318 317 317 318 318 318 319 319 319 320 321 328 328 325 327 322 319 319 318 317 315 313 311 309 308 307 308 309 310 309
324 323 322 321 320 318 317 318 318 319 319 319 319 320 327 328 329 328 324 320 320 320 319 319 317 315 312 310 308 307 307 306 306
323 322 323 322 322 322 321 319 317 317 318 319 319 320 326 331 331 329 326 320 320 320 320 320 320 318 316 314 312 310 308 307 306
322 323 321 321 322 321 320 320 320 318 320 321 321 323 326 327 329 329 325 321 319 319 320 320 319 319 319 319 317 313 310 308 306
323 318 317 316 317 319 321 321 323 323 321 325 320 324 321 320 327 327 325 322 320 320 320 320 320 319 319 319 319 319 315 311 309
322 321 322 319 319 321 325 322 328 328 322 323 321 322 321 320 324 325 323 323 321 322 323 324 323 322 321 320 319 318 319 318 314
327 327 327 325 323 324 323 326 325 327 327 327 325 324 324 325 326 326 325 325 325 325 325 326 326 326 325 325 324 323 320 318 318
329 328 327 327 324 323 327 330 331 330 329 329 328 327 327 328 328 328 327 327 327 327 327 327 327 327 328 327 327 326 325 324 322
325 327 332 331 330 329 330 330 331 331 330 329 329 330 330 329 329 329 330 329 328 328 328 328 329 328 328 327 327 326 325 325 323
330 332 333 333 334 333 332 332 332 332 332 332 332 333 333 332 331 331 331 331 331 330 329 327 327 327 327 327 327 326 325 325 324
332 333 333 334 334 334 334 333 334 334 334 333 333 334 333 331 331 331 332 331 331 330 327 327 326 326 327 327 326 326 326 326 325
336 335 336 336 337 336 335 335 335 334 333 334 333 333 333 331 330 330 328 328 328 326 327 327 325 325 324 323 324 324 325 325 325
337 336 337 336 335 336 335 334 334 334 334 333 332 330 330 330 331 328 329 327 326 326 326 323 323 323 322 322 321 322 323 323 324
338 339 338 337 335 335 333 334 332 332 331 330 330 327 327 325 325 326 329 327 327 325 323 322 322 321 320 320 320 320 321 321 321
333 335 337 337 338 336 336 336 330 330 329 329 328 328 327 326 325 326 326 325 324 323 322 322 318 318 318 314 315 317 317 318 319
327 326 322 321 321 320 321 322 323 328 327 324 325 327 327 324 325 324 324 323 323 321 322 320 318 318 318 314 314 313 310 312 313
315 315 314 314 314 314 314 314 314 314 314 320 322 322 323 324 322 321 322 322 321 320 320 319 318 317 317 314 313 312 310 310 311

GFSFLT1_850_thetae_087.txt.gz
Theta_e
313 313 314 315 317 318 320 322 324 327 327 329 332 332 333 330 330 319 316 315 313 311 310 310 313 322 330 331 330 330 331 330 329
315 315 315 316 317 317 318 320 321 324 326 327 329 333 332 331 326 320 317 316 315 314 313 311 309 312 316 324 328 328 324 324 323
317 316 316 317 317 318 318 318 319 319 325 326 328 332 330 330 324 323 320 319 318 317 315 314 312 310 310 310 312 313 313 312 310
320 318 317 317 318 318 318 318 318 318 319 320 322 326 325 324 322 324 321 320 320 319 318 317 315 313 311 310 308 308 307 307 307
322 321 320 319 318 317 318 318 318 319 319 319 319 320 325 326 326 325 325 321 320 320 320 320 319 318 316 313 311 310 308 307 306
324 322 322 321 321 320 320 318 317 317 318 319 319 321 325 326 327 327 326 323 320 319 320 319 319 319 319 318 316 313 311 309 307
323 322 322 321 320 320 319 319 319 318 319 320 320 322 323 323 326 327 326 324 321 319 320 320 320 319 319 319 319 319 316 312 309
322 319 317 317 317 317 319 319 321 322 320 318 318 319 320 320 323 325 324 323 323 321 321 323 323 322 321 320 319 318 318 318 314
321 318 319 319 318 319 320 320 321 323 323 323 323 321 320 321 322 323 324 324 325 324 324 325 325 325 325 324 324 323 320 318 318
323 323 323 323 322 321 321 322 325 325 327 326 325 325 325 325 325 325 326 326 326 326 326 326 326 327 327 327 327 326 326 324 322
327 326 326 325 325 323 323 326 329 330 329 329 328 328 327 327 327 328 328 328 328 328 328 328 328 328 328 328 327 327 326 325 324
328 327 326 330 329 328 328 330 331 331 330 329 330 330 332 331 331 330 330 330 331 330 330 329 326 325 326 327 327 327 327 326 324
328 326 330 332 333 333 333 332 331 331 332 332 332 332 332 332 332 332 332 332 331 330 329 328 326 325 325 325 326 327 327 327 326
330 331 332 332 333 334 334 333 333 334 333 332 332 332 332 332 332 332 331 331 328 328 327 328 325 326 324 324 324 324 325 326 326
333 334 334 335 336 334 334 334 333 333 332 332 332 332 331 331 330 329 330 329 328 326 325 326 325 324 323 323 322 321 321 323 324
336 335 336 335 334 334 333 333 331 331 331 331 330 329 328 327 324 324 327 328 326 326 325 324 323 322 321 321 321 320 320 320 321
336 335 335 335 334 334 333 333 332 331 330 329 328 328 325 325 324 325 325 327 327 325 324 322 320 321 320 318 315 313 315 318 319
336 336 334 335 334 334 334 333 330 329 328 328 328 327 326 326 325 325 327 326 325 324 322 320 320 319 318 318 318 314 312 311 310
331 332 331 330 325 321 319 319 319 323 321 322 324 327 327 325 325 322 324 324 324 322 321 321 318 318 317 317 316 315 312 312 309
319 317 316 315 314 314 313 313 313 313 313 313 317 321 323 321 325 325 321 321 323 322 321 320 318 317 316 315 313 312 311 310 310

GFSFLT1_850_thetae_090.txt.gz
Theta_e
314 314 316 317 318 321 323 325 324 324 325 327 332 331 328 325 322 317 316 315 313 312 311 310 315 328 330 330 330 330 324 325 323
315 316 317 317 318 319 321 323 324 324 325 325 329 326 328 323 324 319 318 317 316 315 313 311 310 313 316 319 319 318 315 313 311
316 316 317 317 317 318 319 319 322 323 324 324 326 325 326 323 324 322 320 320 319 318 317 315 313 311 310 310 310 309 309 308 308
317 317 317 318 318 318 318 318 318 319 321 321 323 324 324 322 323 325 323 320 320 320 319 319 318 316 314 311 310 309 309 308 307
318 317 317 317 318 318 318 318 318 318 318 319 319 321 325 326 326 326 325 324 320 319 319 319 319 319 319 317 315 313 311 309 308
321 320 320 320 320 319 318 317 317 318 318 319 319 321 325 324 325 325 325 324 322 319 319 320 320 319 318 318 318 318 316 313 310
322 322 322 321 321 320 320 319 319 318 319 319 320 321 322 321 321 323 324 324 323 322 321 322 323 322 321 320 319 318 318 318 315
322 320 319 319 318 319 319 319 320 321 321 319 319 319 319 319 319 322 323 324 324 324 324 324 324 325 324 324 324 322 321 319 318
322 319 319 319 319 320 321 321 322 324 325 324 324 323 323 322 323 324 325 325 326 326 326 326 326 326 326 326 327 326 325 324 321
323 321 322 323 322 322 322 322 325 326 327 327 327 326 325 325 326 326 327 328 328 328 328 327 327 327 327 327 327 327 327 325 324
325 322 323 323 324 324 323 325 328 329 329 329 328 328 328 328 328 329 329 329 329 330 330 329 328 324 323 324 326 327 327 327 324
326 324 323 325 328 327 327 327 329 330 330 330 329 330 331 331 331 331 332 331 331 330 329 328 327 325 325 324 324 326 327 327 326
327 326 324 329 331 331 332 331 331 331 331 332 331 330 331 331 332 333 332 331 329 329 328 327 328 325 325 323 323 324 325 326 327
327 328 329 331 332 332 333 334 334 333 332 331 331 331 331 331 331 331 331 330 328 327 328 326 326 325 325 324 323 322 322 322 324
331 331 331 333 334 334 333 333 332 331 330 330 329 330 329 329 329 326 325 329 330 328 324 324 324 323 323 322 321 321 321 320 321
334 334 334 333 334 333 333 332 332 331 330 330 328 328 326 326 324 323 322 325 327 328 326 325 323 323 321 321 320 317 312 313 317
335 334 335 334 334 333 333 332 331 330 330 328 327 326 326 324 324 324 324 323 326 327 326 324 321 319 319 318 318 317 316 313 311
335 335 334 334 334 332 332 331 331 329 328 327 327 326 324 324 325 325 325 325 325 325 324 323 321 319 318 317 316 316 316 316 311
329 329 331 331 331 327 328 327 325 323 322 319 323 323 325 323 322 323 324 324 324 324 323 322 321 320 318 316 316 315 313 312 310
325 330 328 327 325 320 316 314 313 313 313 313 313 314 324 321 321 321 322 323 322 322 322 322 321 320 317 315 315 314 312 310 309

GFSFLT1_850_thetae_093.txt.gz
Theta_e
314 315 317 319 321 322 322 322 322 322 324 325 326 325 322 320 318 317 317 316 315 313 312 311 318 331 329 327 327 323 315 312 310
315 317 318 319 321 322 322 322 322 323 326 328 325 324 323 322 321 319 319 319 318 317 316 314 312 312 312 312 312 311 310 309 308
316 317 318 319 320 321 322 323 323 324 324 325 325 324 323 321 322 322 320 319 319 319 319 318 317 315 313 311 310 310 309 309 308
317 317 317 318 318 318 319 321 323 324 324 323 323 323 323 323 324 323 323 321 319 319 319 319 319 318 318 316 315 313 312 310 309
317 317 318 318 318 318 318 318 319 321 322 322 321 321 323 324 324 324 324 323 322 319 319 320 320 319 318 318 318 318 317 314 312
317 317 317 317 317 317 318 318 318 319 319 319 319 320 323 322 323 323 324 323 323 322 321 321 322 322 321 320 319 318 318 318 316
321 321 321 321 321 321 320 319 318 317 319 320 320 321 322 320 320 321 323 323 324 324 323 323 324 324 324 324 324 323 322 320 319
323 322 322 321 321 320 320 319 320 320 322 321 320 319 320 320 320 321 323 324 325 325 325 325 325 325 326 326 326 325 325 324 322
322 320 318 317 317 318 320 321 322 324 325 324 324 324 324 324 324 324 325 326 327 327 328 327 327 327 326 326 326 326 326 326 324
323 320 321 322 320 321 322 322 324 326 327 327 327 326 326 326 326 326 327 329 329 329 330 329 328 326 322 323 325 325 326 327 325
325 323 323 323 323 324 323 323 326 328 329 329 328 328 328 329 330 330 330 331 331 330 330 329 327 325 324 325 323 326 326 326 327
327 326 324 324 326 326 326 326 328 329 329 329 329 330 331 331 330 331 331 332 331 330 328 328 324 326 325 324 323 322 323 324 326
330 328 326 325 329 330 330 330 331 331 331 331 331 330 330 330 330 330 330 330 329 327 327 325 326 326 322 324 323 323 322 322 322
333 329 327 326 331 332 332 333 333 332 331 330 330 329 329 329 329 327 330 330 329 328 328 326 326 324 323 321 322 322 321 321 320
330 328 329 330 331 332 331 332 332 331 330 330 329 328 328 328 328 325 324 325 325 329 326 323 324 322 322 321 321 320 320 317 313
334 334 334 334 333 332 333 332 331 330 329 328 328 326 326 324 324 323 323 323 323 325 325 326 325 324 320 319 319 318 317 316 314
334 333 332 334 333 333 332 331 330 330 329 328 327 327 324 322 322 323 324 322 322 327 324 326 325 321 319 318 317 316 315 315 315
334 333 332 333 332 332 332 330 330 328 328 326 327 325 325 324 323 322 322 323 324 325 324 324 323 321 321 318 317 316 315 315 312
332 328 326 330 330 332 334 333 327 327 327 323 322 322 325 326 323 322 321 322 321 322 322 322 322 322 320 319 317 315 315 315 311
327 326 327 327 328 330 328 323 318 315 313 313 313 313 315 317 320 320 320 320 320 321 320 321 321 321 319 318 317 314 314 313 310

GFSFLT1_850_thetae_096.txt.gz
Theta_e
314 315 317 320 321 322 322 322 323 323 323 325 323 321 321 319 319 319 318 318 317 315 314 312 316 317 321 315 312 311 310 309 308
315 318 319 320 321 321 322 322 323 324 325 324 325 324 321 322 320 319 319 319 319 319 318 317 316 314 313 312 312 311 311 310 308
317 318 320 321 322 322 322 322 324 324 326 325 324 323 321 322 322 322 320 319 319 319 319 318 318 318 318 317 316 315 313 312 310
317 318 319 321 322 322 323 323 324 324 323 324 323 322 324 324 324 322 322 321 320 319 319 320 319 319 318 318 318 317 317 315 313
317 317 318 319 319 320 320 322 323 323 321 320 321 321 323 323 323 323 323 322 322 321 321 322 322 322 321 320 319 319 318 318 317
317 318 318 318 318 318 318 319 319 320 320 319 319 319 322 322 321 323 323 323 323 324 323 323 324 324 324 324 323 323 322 321 320
317 317 317 317 317 317 317 317 317 318 318 319 319 320 321 320 320 321 323 323 324 324 325 325 325 325 325 325 325 325 325 324 323
321 321 321 321 321 321 320 319 319 318 320 320 320 319 320 320 321 322 323 324 325 326 327 326 326 327 326 326 325 325 325 325 324
324 323 322 322 320 319 320 321 322 323 323 323 323 323 324 324 324 324 325 326 328 328 328 329 328 325 323 322 323 324 325 326 325
325 323 320 319 319 320 322 322 323 325 326 326 326 326 326 326 326 326 327 329 330 329 329 329 327 326 326 326 324 323 325 325 326
326 323 322 323 323 323 323 323 324 327 328 328 328 328 328 329 330 330 330 330 331 330 329 327 327 326 325 324 324 323 322 322 323
327 325 324 325 325 325 324 324 326 328 329 329 329 329 330 329 329 328 329 330 329 328 327 325 326 326 324 323 324 322 322 321 321
330 328 327 326 326 328 328 328 329 330 330 331 330 330 329 329 328 328 328 326 328 327 326 325 325 324 323 324 323 320 321 320 320
335 332 329 328 327 330 331 332 332 332 330 330 329 328 328 328 327 327 328 326 325 326 326 328 325 324 323 322 321 321 319 319 319
334 333 331 329 328 331 332 330 331 331 329 329 328 328 327 327 325 324 324 324 324 324 324 327 324 324 324 323 319 318 318 318 317
334 332 330 330 331 332 332 331 331 331 329 328 327 327 325 325 323 320 321 322 322 323 325 326 326 324 323 320 318 317 317 315 314
334 334 333 333 332 332 331 331 330 329 328 327 326 326 322 320 322 322 322 323 322 321 325 323 324 324 322 320 318 317 316 315 314
335 335 334 333 332 332 330 330 331 329 326 326 326 326 323 323 322 322 322 321 321 322 324 325 323 323 321 321 319 317 316 315 315
334 334 332 331 326 325 327 327 331 332 330 325 325 323 325 325 322 322 322 321 320 320 321 321 321 322 321 321 319 318 317 315 314
332 332 333 328 326 326 326 325 327 322 315 313 312 312 313 315 321 320 317 319 319 320 319 319 320 320 320 320 319 318 316 314 313

GFSFLT1_850_thetae_099.txt.gz
Theta_e
313 314 318 320 320 321 322 324 326 324 324 321 322 320 319 319 319 319 319 319 318 317 315 315 314 313 313 313 313 312 311 309 308
314 317 320 321 321 321 322 324 325 325 325 324 322 321 321 321 319 319 318 318 319 318 318 318 317 317 317 317 316 315 314 312 310
317 319 321 322 322 323 323 324 326 326 325 324 322 321 322 322 322 321 319 319 319 319 319 319 319 319 318 318 318 318 317 316 313
319 320 321 322 322 323 323 324 325 325 325 323 322 323 324 323 323 322 321 321 320 320 321 322 322 321 320 320 320 319 319 318 316
319 319 321 322 323 323 323 324 324 323 323 323 321 321 323 322 322 323 323 323 323 322 322 323 323 323 323 323 323 322 322 321 319
318 319 319 319 319 320 321 322 322 321 320 319 319 319 322 321 321 322 323 323 323 324 324 324 324 325 325 325 325 324 324 323 322
317 318 318 318 318 318 318 318 319 318 318 318 319 320 321 320 320 321 323 323 324 325 326 325 326 326 326 325 325 324 324 324 324
317 317 317 317 318 318 318 318 317 317 319 320 320 319 320 321 321 322 323 324 326 327 327 328 327 326 324 323 322 323 324 325 325
319 320 321 321 322 321 320 320 319 320 322 323 323 323 324 324 324 324 325 327 328 328 328 329 327 326 327 326 324 322 324 325 325
323 323 322 321 320 319 321 322 322 324 325 326 326 326 326 326 326 327 327 329 330 330 329 328 326 327 325 325 325 324 321 321 321
324 324 322 321 320 322 323 323 324 326 327 328 328 327 327 329 329 329 329 330 330 329 328 327 325 327 325 325 324 324 322 322 320
327 325 322 323 324 324 324 323 324 327 328 329 329 329 330 329 328 328 328 328 326 327 327 326 325 326 325 324 324 322 320 320 319
327 326 326 325 325 325 326 326 326 329 329 330 330 329 328 328 328 327 326 326 327 324 326 326 324 325 324 325 324 322 321 318 318
330 330 328 327 326 326 329 329 330 332 330 330 329 328 328 328 327 327 325 325 326 325 324 325 327 325 324 324 323 321 318 317 316
334 334 333 329 328 327 330 331 331 329 330 328 328 328 327 327 327 326 324 320 321 323 323 323 327 325 325 325 322 319 317 317 315
333 334 334 332 328 328 331 331 331 330 329 328 328 327 325 326 320 320 319 318 322 323 323 323 326 326 325 322 321 318 318 316 315
334 334 333 330 330 332 331 331 330 329 328 327 327 326 324 321 319 320 321 320 321 322 321 324 325 324 324 322 320 320 318 316 315
333 334 333 333 332 332 333 330 330 330 329 328 327 325 324 323 323 322 321 321 321 319 318 322 323 322 321 322 320 320 318 318 317
331 333 333 333 332 331 330 328 328 328 331 330 329 324 327 324 322 321 320 321 320 319 319 320 321 320 319 320 319 319 319 318 315
332 332 334 333 333 328 325 326 326 325 319 321 314 313 313 313 319 320 318 318 318 318 318 320 320 319 319 319 319 319 318 316 314

GFSFLT1_850_thetae_102.txt.gz
Theta_e
313 316 329 335 331 324 328 331 324 322 321 321 320 319 319 320 321 320 319 318 316 316 316 316 316 316 315 315 315 314 313 312 310
314 319 321 324 322 325 327 327 325 324 324 323 322 321 321 322 319 320 323 319 318 318 318 318 318 318 318 318 317 317 316 314 312
317 319 320 320 322 323 325 325 325 325 324 323 321 322 322 325 322 321 320 319 320 320 320 320 320 320 319 319 319 319 318 317 315
319 320 321 321 321 322 323 324 324 324 324 322 322 323 323 329 323 327 328 321 321 321 322 323 322 322 322 322 322 322 321 321 319
319 321 321 321 322 322 323 323 324 323 323 322 321 322 322 327 323 324 324 323 323 323 323 323 324 324 324 324 324 324 323 322 322
321 321 322 322 323 322 323 323 323 323 322 321 319 320 325 324 323 327 323 323 324 324 325 325 325 325 326 325 325 324 323 323 323
330 321 321 321 321 321 321 322 321 321 321 319 319 323 321 321 321 324 323 324 325 326 327 327 327 326 325 323 322 321 322 324 324
320 319 319 318 319 319 319 319 319 318 319 320 323 320 320 325 322 322 323 324 326 327 328 328 327 326 326 326 324 323 324 324 325
319 319 318 318 318 320 319 323 320 318 319 324 328 322 324 326 324 325 324 326 328 329 329 328 326 326 326 326 325 324 321 322 322
317 318 319 321 322 322 321 322 322 323 327 326 327 330 329 328 328 328 328 328 330 330 328 327 326 326 326 324 325 324 322 321 320
322 322 322 322 321 319 320 327 326 327 326 329 328 329 329 329 330 330 329 328 328 329 327 326 325 326 325 325 323 323 319 320 319
324 324 323 321 320 320 322 323 322 325 327 329 331 331 331 331 331 329 328 326 326 327 323 326 326 326 324 324 324 324 321 319 317
327 328 326 326 324 324 323 324 323 327 331 332 332 332 331 330 329 327 329 330 329 329 328 325 325 325 325 325 325 323 321 318 316
329 329 330 327 327 325 326 327 328 330 332 332 331 330 330 328 330 329 329 328 325 325 326 324 324 326 327 324 324 322 321 318 317
329 330 332 331 329 327 327 329 329 333 333 331 329 332 332 331 329 327 325 322 318 319 322 323 324 327 325 324 325 324 320 318 318
333 334 335 334 331 328 327 330 332 330 329 330 331 330 329 327 321 322 318 318 319 322 322 324 323 325 327 326 325 322 318 319 318
334 334 334 334 334 331 330 331 331 330 332 330 330 327 326 325 319 319 320 320 320 319 320 322 324 326 325 323 323 320 320 319 319
332 332 333 333 333 331 330 331 330 332 329 329 329 328 325 325 325 322 321 321 320 320 320 317 323 325 323 321 321 320 320 319 318
330 331 330 330 332 332 331 331 330 330 328 328 329 329 329 325 322 323 319 318 320 320 319 319 320 322 322 322 320 320 318 318 318
328 330 330 330 330 330 330 330 329 326 326 325 321 314 312 314 322 320 320 319 316 316 316 317 318 320 321 320 318 319 318 318 317

GFSFLT1_850_thetae_105.txt.gz
Theta_e
314 332 335 333 333 329 329 320 320 319 318 319 319 319 321 327 328 324 324 318 316 317 316 317 317 317 317 317 317 316 315 313 311
322 335 334 332 332 326 325 322 321 322 321 321 320 320 324 328 329 330 321 318 318 318 319 318 318 318 319 319 319 318 318 317 314
323 335 334 326 322 327 324 323 323 323 322 321 321 322 324 330 330 330 319 319 320 321 321 321 321 321 321 321 321 321 320 320 318
322 334 328 325 323 324 324 323 323 323 323 322 322 322 326 331 330 331 325 321 321 322 323 323 323 323 323 323 323 323 322 321 321
327 327 331 328 323 323 324 324 323 323 322 321 321 322 325 331 329 331 323 323 323 323 323 323 324 324 325 325 325 324 323 322 322
329 333 330 325 324 323 324 325 324 323 322 320 319 321 329 328 330 331 323 323 323 324 325 325 326 326 325 323 322 321 322 323 323
332 323 323 324 323 323 323 324 324 323 325 319 318 323 328 327 326 329 322 323 324 326 327 327 327 326 325 325 324 323 324 323 324
334 325 324 323 323 323 322 322 322 323 326 327 328 328 327 327 327 324 322 323 326 327 327 328 327 325 327 326 324 323 321 323 323
332 323 322 321 319 327 322 324 327 325 325 329 329 329 328 328 328 327 324 325 327 329 329 327 326 325 327 325 325 325 322 321 320
331 330 328 327 325 328 327 328 328 326 328 331 331 331 330 329 329 329 328 328 329 330 329 327 326 327 326 325 325 323 323 320 319
325 326 327 328 330 330 330 329 331 330 331 331 330 330 330 330 330 331 331 329 327 327 327 325 326 326 327 325 324 323 322 320 318
322 330 330 329 330 328 324 330 330 330 331 331 331 331 331 332 332 331 330 330 327 328 327 327 325 324 326 325 324 325 323 320 317
328 328 325 323 323 324 330 331 330 329 330 332 332 332 332 331 331 330 330 330 330 329 328 328 326 323 325 324 326 324 322 320 318
326 326 331 332 332 331 330 330 330 329 331 332 332 332 331 331 330 330 329 328 328 325 325 326 323 323 325 325 325 324 323 319 318
331 334 335 334 333 332 331 331 330 330 332 331 331 331 330 330 330 330 328 326 319 317 321 326 325 323 326 324 323 324 324 319 319
332 334 335 334 334 333 331 330 331 331 332 331 331 330 330 329 328 326 326 324 317 318 319 329 326 321 326 328 326 326 322 319 319
334 334 334 334 334 334 332 331 331 332 332 332 330 329 327 327 325 321 320 320 319 318 318 319 322 323 325 326 325 323 322 320 319
332 333 333 333 333 334 332 332 331 331 331 332 330 328 327 326 325 325 322 319 319 318 318 319 317 321 325 325 323 321 320 319 318
330 330 330 329 330 330 331 332 331 332 331 330 328 328 326 328 322 324 322 320 317 319 318 319 318 319 321 323 322 321 320 319 317
329 328 327 327 328 327 327 328 329 331 330 328 327 325 320 315 320 321 321 322 320 317 315 317 315 316 317 319 320 319 317 318 316

GFSFLT1_850_thetae_108.txt.gz
Theta_e
320 335 335 335 320 318 317 317 317 317 318 318 318 324 327 324 322 323 321 317 317 317 317 318 318 318 318 318 318 318 317 316 313
319 335 335 327 323 323 319 319 319 319 319 319 320 324 327 328 328 320 318 318 319 319 319 319 320 320 320 320 320 320 319 319 317
332 335 332 335 334 328 321 320 321 320 320 320 321 324 329 329 328 321 319 320 320 321 321 321 322 322 322 322 322 321 320 320 319
335 335 334 335 334 330 324 323 323 321 320 321 321 325 331 331 331 329 321 321 321 322 322 322 323 323 324 324 324 323 321 321 321
335 335 334 334 333 332 325 324 322 322 321 321 321 323 330 328 329 329 322 322 322 323 323 324 324 325 325 324 322 321 321 322 322
332 335 335 334 332 333 326 324 322 321 321 320 320 324 328 328 331 330 323 322 323 324 325 325 326 325 324 324 323 323 323 323 323
335 333 335 335 333 333 324 324 323 322 320 319 318 326 326 327 327 328 323 322 324 325 326 326 326 324 326 325 324 323 322 323 323
332 328 327 327 324 322 323 323 322 321 325 325 323 327 327 327 326 324 322 322 325 327 327 327 326 324 327 325 324 325 322 321 319
328 324 321 322 323 323 322 321 320 320 325 326 328 328 325 327 327 327 326 324 326 328 328 326 326 327 326 325 325 324 323 320 319
327 324 322 322 320 322 324 325 327 326 322 329 330 330 330 329 329 328 330 329 328 328 329 326 325 325 325 326 325 323 322 321 319
329 325 323 323 324 327 328 327 328 328 329 330 331 330 331 330 329 330 330 330 328 324 326 325 324 324 324 326 325 324 323 321 318
330 329 325 325 328 327 327 327 330 331 331 330 331 330 331 331 330 331 330 329 328 329 329 327 326 326 324 324 324 324 324 321 318
324 324 326 327 327 325 323 326 330 330 330 330 331 331 332 330 330 330 328 329 329 329 328 326 326 323 323 324 325 325 323 321 319
324 324 325 325 325 325 328 329 329 329 328 331 331 331 331 331 330 328 329 329 329 325 322 321 323 322 322 324 325 325 323 323 320
325 326 327 332 332 331 328 329 330 329 329 330 331 331 331 328 329 329 329 329 324 318 318 321 322 323 323 325 326 322 323 324 320
329 331 333 334 333 332 331 331 330 330 330 332 330 330 329 330 330 329 326 324 321 317 316 321 326 320 321 325 326 326 323 322 320
331 330 332 334 334 334 333 331 330 330 330 332 331 330 330 330 329 325 320 321 320 317 317 317 316 314 319 326 326 325 324 321 320
329 332 333 333 333 333 333 332 331 330 331 330 329 329 327 327 326 324 321 321 317 316 316 318 319 317 320 323 325 324 321 320 319
333 332 331 332 331 330 331 329 329 330 331 330 330 329 328 326 325 325 325 322 320 320 316 317 318 318 318 321 322 322 320 320 317
329 329 329 329 329 327 327 327 325 326 326 329 330 328 326 323 317 320 321 320 322 321 319 316 315 315 315 316 318 319 319 318 317

GFSFLT1_850_thetae_111.txt.gz
Theta_e
329 333 327 326 316 316 316 316 316 316 316 319 321 323 327 331 329 321 317 317 318 318 318 319 319 319 319 319 319 319 318 316 314
332 331 332 320 316 317 316 317 317 318 318 320 323 323 322 322 321 318 318 319 319 320 320 320 320 321 321 322 321 320 319 319 317
333 335 332 318 320 321 319 319 319 319 319 321 323 325 324 323 321 319 319 320 320 321 321 321 322 323 323 323 322 321 319 320 320
334 335 331 325 334 326 320 321 320 320 320 321 324 326 328 325 326 322 320 320 321 321 322 323 323 324 323 323 321 320 320 320 321
333 332 329 333 331 323 322 322 322 321 321 321 324 327 327 324 325 325 321 322 322 323 323 324 324 323 323 323 322 322 321 322 322
335 333 335 335 331 324 323 322 321 321 320 320 321 325 326 328 328 328 324 322 322 324 325 325 325 322 325 325 323 322 322 323 323
333 335 334 333 332 326 323 323 322 321 320 319 319 325 326 326 326 328 326 322 323 325 326 326 325 323 326 325 324 324 322 320 319
335 336 335 332 330 326 322 323 322 321 321 321 322 326 326 326 326 325 323 322 323 326 326 326 325 326 327 325 325 324 322 321 319
332 331 331 328 322 322 323 322 322 321 322 323 327 328 325 327 327 327 326 325 325 326 327 326 325 326 326 326 325 324 323 322 320
328 325 322 321 322 322 321 320 320 322 320 323 329 329 330 329 328 328 329 329 328 327 327 327 324 324 325 326 326 324 322 321 319
325 325 321 322 322 321 321 322 324 324 324 328 330 330 330 330 329 329 329 329 326 326 327 327 325 324 324 323 325 324 324 322 319
326 326 322 321 321 324 325 327 327 327 330 330 330 330 330 330 329 329 328 328 327 328 327 328 325 325 325 324 323 324 324 322 320
327 326 323 322 323 325 327 327 327 330 330 330 330 330 330 330 330 329 329 328 328 328 328 327 323 323 323 323 324 324 324 323 321
329 328 326 324 323 325 325 324 328 330 330 328 330 330 330 329 329 329 329 328 328 328 328 319 316 320 321 322 324 324 324 323 322
327 325 324 324 326 325 323 324 327 327 328 329 331 331 330 330 329 328 328 329 329 328 319 316 318 321 322 323 325 325 324 323 323
324 323 325 327 327 328 328 327 328 329 329 329 330 330 330 329 328 328 329 328 325 319 316 316 316 317 320 327 327 325 323 323 322
329 328 329 333 333 333 332 331 331 330 329 330 330 330 329 329 328 329 328 321 318 318 316 316 317 316 319 324 323 324 323 323 321
333 330 331 333 333 332 333 333 331 330 330 330 330 330 329 329 329 330 326 320 321 318 318 316 317 315 315 314 321 322 322 321 320
332 332 333 333 333 333 333 332 331 331 330 330 330 329 328 327 326 326 324 323 322 318 318 318 315 315 316 316 317 320 320 319 319
332 330 330 330 330 329 328 329 328 326 326 327 326 329 330 327 325 323 324 324 322 321 320 318 317 316 314 314 314 315 318 318 318

GFSFLT1_850_thetae_114.txt.gz
Theta_e
337 332 334 319 317 317 317 318 323 328 328 328 327 328 328 327 323 318 317 318 318 318 319 319 320 320 320 320 320 318 318 317 315
334 331 328 318 317 317 317 316 316 319 322 323 323 322 322 321 318 318 318 319 319 320 320 320 321 322 322 322 321 319 318 318 318
333 327 328 316 316 316 317 317 317 317 321 322 321 322 322 320 319 319 319 320 320 321 321 322 322 323 322 322 320 319 319 319 319
334 328 330 317 317 317 318 318 318 319 320 323 324 324 324 325 322 320 320 320 321 321 322 323 323 322 322 321 321 320 320 321 320
334 334 329 321 321 318 320 320 320 320 321 323 326 326 324 325 326 322 321 321 322 322 323 324 323 322 324 323 322 322 322 322 322
334 333 331 332 329 321 320 321 320 320 321 322 326 328 324 325 326 326 323 321 322 324 324 324 324 322 325 324 324 323 322 321 320
331 331 330 333 329 323 322 322 321 320 320 320 324 327 326 324 324 325 324 321 322 324 325 325 325 324 326 325 324 323 322 321 320
334 330 331 333 331 325 323 322 321 320 319 318 320 325 324 324 325 325 323 322 322 324 325 326 325 326 327 325 324 324 323 321 320
334 332 333 331 330 326 323 322 322 321 321 321 321 325 325 324 325 326 325 327 325 325 326 326 325 324 325 325 326 324 322 322 320
332 332 333 330 328 325 322 322 322 321 320 322 324 327 328 326 326 327 328 328 327 326 324 326 324 322 324 324 325 326 323 322 320
326 327 328 325 323 323 322 321 320 320 321 320 326 327 329 329 329 328 329 328 327 325 327 326 325 323 324 324 324 323 323 323 320
321 322 322 320 321 322 321 321 323 324 323 325 329 329 329 330 329 328 328 327 328 326 327 325 327 326 324 324 323 323 324 323 321
324 324 323 321 322 321 322 323 324 324 328 328 329 330 329 329 330 329 328 328 327 327 327 328 327 322 320 322 323 324 324 324 321
326 325 326 323 322 322 323 324 326 326 328 329 329 330 330 329 329 329 328 329 328 327 327 328 325 315 318 320 324 325 324 324 322
330 329 325 324 324 324 325 326 325 325 328 330 329 330 330 330 329 329 328 326 328 328 328 327 316 316 320 323 325 325 325 324 323
332 330 328 326 323 323 326 325 324 327 328 328 328 330 330 330 330 329 328 328 328 328 326 317 314 315 316 321 325 325 324 322 322
331 330 328 325 324 327 325 325 326 328 329 329 329 330 331 330 330 329 327 328 328 320 318 315 314 315 315 320 323 323 322 322 321
330 326 325 323 328 328 329 329 328 329 329 330 329 330 330 330 329 329 328 329 328 319 317 317 316 314 314 314 315 315 321 320 320
325 325 327 328 330 331 329 331 330 330 330 329 329 329 330 328 328 328 329 327 325 321 320 319 318 316 314 314 315 316 318 319 318
331 332 332 330 334 332 332 329 329 329 329 329 327 328 329 329 327 326 326 325 324 323 322 321 319 318 317 315 314 314 315 317 317

GFSFLT1_850_thetae_117.txt.gz
Theta_e
327 335 334 328 327 317 316 318 322 327 327 328 329 328 326 323 318 317 317 318 318 319 319 320 321 321 321 320 319 318 317 317 316
335 329 332 317 317 317 318 319 323 325 325 326 326 326 322 320 318 318 318 319 319 320 320 321 321 321 321 320 319 318 318 318 318
336 329 323 318 317 317 317 318 320 321 321 322 322 322 321 318 318 319 319 320 320 321 321 322 321 321 321 320 319 319 319 319 319
334 329 326 316 316 316 316 316 317 318 321 322 322 323 323 321 319 319 320 320 321 321 322 322 321 322 322 322 322 322 322 322 322
331 330 326 316 316 316 317 318 318 319 321 322 323 325 324 325 322 320 320 321 321 322 323 323 322 323 324 323 323 323 322 321 320
330 332 329 318 317 317 318 319 319 320 321 322 323 323 323 323 324 324 321 321 322 323 324 324 323 323 325 324 324 323 322 320 320
330 334 331 320 322 319 320 320 320 320 320 321 322 323 323 323 323 323 322 321 321 323 324 324 324 324 326 325 324 323 322 321 320
330 333 333 326 331 322 321 321 321 320 319 319 321 323 323 323 323 323 322 322 322 323 325 325 324 325 326 325 325 324 323 322 321
330 332 330 330 329 324 322 322 321 320 319 318 319 321 324 323 324 325 325 326 326 325 325 325 326 325 325 325 326 325 323 322 320
329 330 330 329 331 325 322 322 322 321 320 320 319 322 325 323 324 326 327 327 326 325 324 323 325 322 323 324 324 323 325 323 321
333 329 331 328 330 327 325 323 322 322 321 321 322 324 327 327 328 328 328 327 327 327 325 325 324 324 323 323 323 324 323 323 322
335 331 329 328 328 328 328 324 323 322 320 320 320 326 327 329 329 328 328 328 327 327 326 326 326 327 325 323 322 324 323 324 323
337 331 326 323 328 325 325 324 322 320 322 323 322 326 328 329 329 329 328 328 327 327 327 326 327 327 324 318 320 324 324 324 323
335 332 326 323 325 324 324 322 321 322 324 324 326 328 329 328 329 329 329 328 328 328 327 327 327 327 316 316 319 325 325 324 323
330 328 323 324 324 324 324 322 324 324 324 326 328 329 329 329 330 329 330 328 328 327 327 327 327 322 314 318 325 326 325 324 324
330 328 325 326 328 323 322 322 325 326 327 329 329 329 329 330 330 330 329 329 328 327 327 327 318 315 313 315 324 326 323 323 321
333 324 323 328 326 323 323 324 324 326 327 328 329 328 328 330 330 330 330 329 328 326 328 320 315 314 313 313 315 322 322 322 321
331 325 331 330 326 324 324 325 326 328 326 329 329 328 329 330 330 330 329 329 328 327 328 318 317 316 315 315 316 316 315 318 320
329 329 330 330 329 327 325 326 328 327 327 329 329 329 329 329 329 329 329 328 328 327 326 318 320 318 316 315 315 315 314 315 318
327 324 328 330 328 327 326 329 328 329 328 328 329 329 329 328 328 328 328 327 327 324 323 321 322 322 320 317 316 315 314 314 315